Time,TemperatureF,DewpointF,PressureIn,WindDirection,WindDirectionDegrees,WindSpeedMPH,WindSpeedGustMPH,Humidity,HourlyPrecipIn,Conditions,Clouds,dailyrainin,SoftwareType,DateUTC
2013-03-12 00:00:00,36.3,31.6,29.31,SW,225,0.0,0.0,83,0.00,,,0.13,WUHU21623XXSP,2013-03-12 04:00:00,
2013-03-12 00:05:00,36.3,31.6,29.31,WSW,247,0.0,0.0,83,0.00,,,0.00,WUHU21623XXSP,2013-03-12 04:05:00,
2013-03-12 00:10:00,36.3,31.6,29.31,SSW,202,0.0,0.0,83,0.00,,,0.00,WUHU21623XXSP,2013-03-12 04:10:00,
2013-03-12 00:15:00,36.3,31.6,29.31,SW,225,0.0,0.0,83,0.00,,,0.00,WUHU21623XXSP,2013-03-12 04:15:00,
2013-03-12 00:16:00,36.3,31.6,29.31,SW,225,0.0,0.0,83,0.00,,,0.00,WUHU21623XXSP,2013-03-12 04:16:00,
2013-03-12 00:20:00,36.3,31.6,29.31,WSW,247,0.0,0.0,83,0.00,,,0.00,WUHU21623XXSP,2013-03-12 04:20:00,
2013-03-12 00:21:00,36.3,31.6,29.31,WSW,247,0.0,0.0,83,0.00,,,0.00,WUHU21623XXSP,2013-03-12 04:21:00,
2013-03-12 00:25:00,36.3,31.6,29.31,WSW,247,0.0,0.0,83,0.00,,,0.00,WUHU21623XXSP,2013-03-12 04:25:00,
2013-03-12 00:26:00,36.3,31.6,29.31,WSW,247,0.0,0.0,83,0.00,,,0.00,WUHU21623XXSP,2013-03-12 04:26:00,
2013-03-12 00:27:00,36.3,31.6,29.31,SW,225,0.0,0.0,83,0.00,,,0.00,WUHU21623XXSP,2013-03-12 04:27:00,
2013-03-12 00:30:00,36.3,31.6,29.32,SW,225,0.0,0.0,83,0.00,,,0.00,WUHU21623XXSP,2013-03-12 04:30:00,
2013-03-12 00:31:00,36.3,31.6,29.32,SW,225,0.0,0.0,83,0.00,,,0.00,WUHU21623XXSP,2013-03-12 04:31:00,
2013-03-12 00:32:00,36.3,31.6,29.31,SW,225,0.0,0.0,83,0.00,,,0.00,WUHU21623XXSP,2013-03-12 04:32:00,
2013-03-12 00:35:00,36.3,31.6,29.31,South,180,0.0,0.0,83,0.00,,,0.00,WUHU21623XXSP,2013-03-12 04:35:00,
2013-03-12 00:36:00,36.3,31.6,29.31,South,180,0.0,0.0,83,0.00,,,0.00,WUHU21623XXSP,2013-03-12 04:36:00,
2013-03-12 00:37:00,36.3,31.6,29.31,South,180,0.0,0.0,83,0.00,,,0.00,WUHU21623XXSP,2013-03-12 04:37:00,
2013-03-12 00:41:00,36.3,31.6,29.31,SSW,202,0.0,0.0,83,0.00,,,0.00,WUHU21623XXSP,2013-03-12 04:41:00,
2013-03-12 00:42:00,36.3,31.6,29.31,SSW,202,0.0,0.0,83,0.00,,,0.00,WUHU21623XXSP,2013-03-12 04:42:00,
2013-03-12 00:46:00,36.3,31.6,29.32,SW,225,0.0,0.0,83,0.00,,,0.00,WUHU21623XXSP,2013-03-12 04:46:00,
2013-03-12 00:47:00,36.3,31.6,29.32,WSW,247,0.0,0.0,83,0.00,,,0.00,WUHU21623XXSP,2013-03-12 04:47:00,
2013-03-12 00:51:00,36.3,31.6,29.32,SSW,202,0.0,0.0,83,0.00,,,0.00,WUHU21623XXSP,2013-03-12 04:51:00,
2013-03-12 00:52:00,36.3,31.6,29.32,SSW,202,0.0,0.0,83,0.00,,,0.00,WUHU21623XXSP,2013-03-12 04:52:00,
2013-03-12 00:56:00,36.3,31.6,29.32,SW,225,0.0,0.0,83,0.00,,,0.00,WUHU21623XXSP,2013-03-12 04:56:00,
2013-03-12 00:57:00,36.3,31.6,29.32,WSW,247,0.0,0.0,83,0.00,,,0.00,WUHU21623XXSP,2013-03-12 04:57:00,
2013-03-12 00:58:00,36.3,31.6,29.32,WSW,247,0.0,0.0,83,0.00,,,0.00,WUHU21623XXSP,2013-03-12 04:58:00,
2013-03-12 01:01:00,36.3,31.6,29.32,SSW,202,0.0,0.0,83,0.00,,,0.00,WUHU21623XXSP,2013-03-12 05:01:00,
2013-03-12 01:02:00,36.3,31.6,29.32,SSW,202,0.0,0.0,83,0.00,,,0.00,WUHU21623XXSP,2013-03-12 05:02:00,
2013-03-12 01:03:00,36.3,31.6,29.32,SSW,202,0.0,0.0,83,0.00,,,0.00,WUHU21623XXSP,2013-03-12 05:03:00,
2013-03-12 01:06:00,36.1,31.4,29.32,SSW,202,0.0,0.0,83,0.00,,,0.00,WUHU21623XXSP,2013-03-12 05:06:00,
2013-03-12 01:08:00,36.1,31.4,29.32,SSW,202,0.0,0.0,83,0.00,,,0.00,WUHU21623XXSP,2013-03-12 05:08:00,
2013-03-12 01:12:00,36.1,31.4,29.32,SW,225,0.0,0.0,83,0.00,,,0.00,WUHU21623XXSP,2013-03-12 05:12:00,
2013-03-12 01:13:00,36.1,31.4,29.32,SW,225,0.0,0.0,83,0.00,,,0.00,WUHU21623XXSP,2013-03-12 05:13:00,
2013-03-12 01:17:00,36.1,31.4,29.32,SW,225,0.0,0.0,83,0.00,,,0.00,WUHU21623XXSP,2013-03-12 05:17:00,
2013-03-12 01:18:00,36.1,31.4,29.32,SW,225,0.0,0.0,83,0.00,,,0.00,WUHU21623XXSP,2013-03-12 05:18:00,
2013-03-12 01:22:00,36.1,31.4,29.32,SW,225,0.0,0.0,83,0.00,,,0.00,WUHU21623XXSP,2013-03-12 05:22:00,
2013-03-12 01:23:00,36.1,31.4,29.32,South,180,0.0,0.0,83,0.00,,,0.00,WUHU21623XXSP,2013-03-12 05:23:00,
2013-03-12 01:27:00,36.1,31.4,29.32,SW,225,0.0,0.0,83,0.00,,,0.00,WUHU21623XXSP,2013-03-12 05:27:00,
2013-03-12 01:28:00,36.1,31.4,29.32,SW,225,0.0,0.0,83,0.00,,,0.00,WUHU21623XXSP,2013-03-12 05:28:00,
2013-03-12 01:29:00,36.1,31.4,29.32,SW,225,0.0,0.0,83,0.00,,,0.00,WUHU21623XXSP,2013-03-12 05:29:00,
2013-03-12 01:32:00,36.1,31.4,29.33,SW,225,0.0,0.0,83,0.00,,,0.00,WUHU21623XXSP,2013-03-12 05:32:00,
2013-03-12 01:33:00,36.0,31.2,29.33,SW,225,0.0,0.0,83,0.00,,,0.00,WUHU21623XXSP,2013-03-12 05:33:00,
2013-03-12 01:34:00,36.0,31.2,29.33,SW,225,0.0,0.0,83,0.00,,,0.00,WUHU21623XXSP,2013-03-12 05:34:00,
2013-03-12 01:37:00,36.0,31.2,29.32,WSW,247,0.0,0.0,83,0.00,,,0.00,WUHU21623XXSP,2013-03-12 05:37:00,
2013-03-12 01:38:00,36.0,31.2,29.32,West,270,0.0,0.0,83,0.00,,,0.00,WUHU21623XXSP,2013-03-12 05:38:00,
2013-03-12 01:39:00,36.0,31.2,29.32,West,270,0.0,0.0,83,0.00,,,0.00,WUHU21623XXSP,2013-03-12 05:39:00,
2013-03-12 01:42:00,36.0,31.2,29.33,SW,225,0.0,0.0,83,0.00,,,0.00,WUHU21623XXSP,2013-03-12 05:42:00,
2013-03-12 01:43:00,36.0,31.2,29.33,SW,225,0.0,0.0,83,0.00,,,0.00,WUHU21623XXSP,2013-03-12 05:43:00,
2013-03-12 01:44:00,36.0,31.2,29.33,SW,225,0.0,0.0,83,0.00,,,0.00,WUHU21623XXSP,2013-03-12 05:44:00,
2013-03-12 01:47:00,36.0,31.2,29.33,SSW,202,0.0,0.0,83,0.00,,,0.00,WUHU21623XXSP,2013-03-12 05:47:00,
2013-03-12 01:49:00,35.8,31.1,29.32,SW,225,0.0,0.0,83,0.00,,,0.00,WUHU21623XXSP,2013-03-12 05:49:00,
2013-03-12 01:53:00,35.8,30.8,29.33,SW,225,0.0,0.0,82,0.00,,,0.00,WUHU21623XXSP,2013-03-12 05:53:00,
2013-03-12 01:54:00,35.8,30.8,29.33,SW,225,0.0,0.0,82,0.00,,,0.00,WUHU21623XXSP,2013-03-12 05:54:00,
2013-03-12 01:58:00,35.8,30.8,29.33,SW,225,0.0,0.0,82,0.00,,,0.00,WUHU21623XXSP,2013-03-12 05:58:00,
2013-03-12 01:59:00,35.8,30.8,29.33,SW,225,0.0,0.0,82,0.00,,,0.00,WUHU21623XXSP,2013-03-12 05:59:00,
2013-03-12 02:03:00,35.6,30.6,29.33,WSW,247,0.0,0.0,82,0.00,,,0.00,WUHU21623XXSP,2013-03-12 06:03:00,
2013-03-12 02:04:00,35.4,30.4,29.33,WSW,247,0.0,0.0,82,0.00,,,0.00,WUHU21623XXSP,2013-03-12 06:04:00,
2013-03-12 02:05:00,35.4,30.4,29.33,WSW,247,0.0,0.0,82,0.00,,,0.00,WUHU21623XXSP,2013-03-12 06:05:00,
2013-03-12 02:08:00,35.4,30.4,29.33,SW,225,0.0,0.0,82,0.00,,,0.00,WUHU21623XXSP,2013-03-12 06:08:00,
2013-03-12 02:09:00,35.4,30.4,29.33,SW,225,0.0,0.0,82,0.00,,,0.00,WUHU21623XXSP,2013-03-12 06:09:00,
2013-03-12 02:10:00,35.4,30.4,29.33,West,270,0.0,0.0,82,0.00,,,0.00,WUHU21623XXSP,2013-03-12 06:10:00,
2013-03-12 02:13:00,35.2,30.2,29.34,WSW,247,0.0,0.0,82,0.00,,,0.00,WUHU21623XXSP,2013-03-12 06:13:00,
2013-03-12 02:14:00,35.2,30.2,29.34,WSW,247,0.0,0.0,82,0.00,,,0.00,WUHU21623XXSP,2013-03-12 06:14:00,
2013-03-12 02:15:00,35.2,30.2,29.34,WSW,247,0.0,0.0,82,0.00,,,0.00,WUHU21623XXSP,2013-03-12 06:15:00,
2013-03-12 02:18:00,35.2,30.2,29.34,WSW,247,0.0,0.0,82,0.00,,,0.00,WUHU21623XXSP,2013-03-12 06:18:00,
2013-03-12 02:19:00,35.2,30.2,29.34,SW,225,0.0,0.0,82,0.00,,,0.00,WUHU21623XXSP,2013-03-12 06:19:00,
2013-03-12 02:20:00,35.2,30.2,29.34,SW,225,0.0,0.0,82,0.00,,,0.00,WUHU21623XXSP,2013-03-12 06:20:00,
2013-03-12 02:23:00,35.2,30.5,29.34,SW,225,0.0,0.0,83,0.00,,,0.00,WUHU21623XXSP,2013-03-12 06:23:00,
2013-03-12 02:24:00,35.2,30.5,29.34,SW,225,0.0,0.0,83,0.00,,,0.00,WUHU21623XXSP,2013-03-12 06:24:00,
2013-03-12 02:25:00,35.1,30.3,29.34,SW,225,0.0,0.0,83,0.00,,,0.00,WUHU21623XXSP,2013-03-12 06:25:00,
2013-03-12 02:28:00,34.9,30.2,29.34,West,270,0.0,0.0,83,0.00,,,0.00,WUHU21623XXSP,2013-03-12 06:28:00,
2013-03-12 02:29:00,34.9,30.2,29.34,WSW,247,0.0,0.0,83,0.00,,,0.00,WUHU21623XXSP,2013-03-12 06:29:00,
2013-03-12 02:30:00,34.9,30.2,29.34,WSW,247,0.0,0.0,83,0.00,,,0.00,WUHU21623XXSP,2013-03-12 06:30:00,
2013-03-12 02:33:00,34.9,30.2,29.34,WSW,247,0.0,0.0,83,0.00,,,0.00,WUHU21623XXSP,2013-03-12 06:33:00,
2013-03-12 02:35:00,34.9,30.2,29.34,WSW,247,0.0,0.0,83,0.00,,,0.00,WUHU21623XXSP,2013-03-12 06:35:00,
2013-03-12 02:38:00,34.9,30.2,29.34,WSW,247,0.0,0.0,83,0.00,,,0.00,WUHU21623XXSP,2013-03-12 06:38:00,
2013-03-12 02:40:00,34.9,30.2,29.34,WSW,247,0.0,0.0,83,0.00,,,0.00,WUHU21623XXSP,2013-03-12 06:40:00,
2013-03-12 02:43:00,34.9,30.2,29.34,WSW,247,0.0,0.0,83,0.00,,,0.00,WUHU21623XXSP,2013-03-12 06:43:00,
2013-03-12 02:45:00,34.9,30.2,29.34,SW,225,0.0,0.0,83,0.00,,,0.00,WUHU21623XXSP,2013-03-12 06:45:00,
2013-03-12 02:48:00,34.9,30.2,29.34,WSW,247,0.0,0.0,83,0.00,,,0.00,WUHU21623XXSP,2013-03-12 06:48:00,
2013-03-12 02:50:00,34.9,30.2,29.34,WSW,247,0.0,0.0,83,0.00,,,0.00,WUHU21623XXSP,2013-03-12 06:50:00,
2013-03-12 02:51:00,34.9,30.2,29.34,SW,225,0.0,0.0,83,0.00,,,0.00,WUHU21623XXSP,2013-03-12 06:51:00,
2013-03-12 02:54:00,34.7,30.3,29.35,WSW,247,0.0,0.0,84,0.00,,,0.00,WUHU21623XXSP,2013-03-12 06:54:00,
2013-03-12 02:55:00,34.7,30.3,29.35,WSW,247,0.0,0.0,84,0.00,,,0.00,WUHU21623XXSP,2013-03-12 06:55:00,
2013-03-12 02:56:00,34.7,30.3,29.35,WSW,247,0.0,0.0,84,0.00,,,0.00,WUHU21623XXSP,2013-03-12 06:56:00,
2013-03-12 02:59:00,34.7,30.3,29.34,WSW,247,0.0,0.0,84,0.00,,,0.00,WUHU21623XXSP,2013-03-12 06:59:00,
2013-03-12 03:00:00,34.7,30.3,29.34,WSW,247,0.0,0.0,84,0.00,,,0.00,WUHU21623XXSP,2013-03-12 07:00:00,
2013-03-12 03:01:00,34.7,30.3,29.34,WSW,247,0.0,0.0,84,0.00,,,0.00,WUHU21623XXSP,2013-03-12 07:01:00,
2013-03-12 03:04:00,34.7,30.3,29.34,WSW,247,0.0,0.0,84,0.00,,,0.00,WUHU21623XXSP,2013-03-12 07:04:00,
2013-03-12 03:05:00,34.5,30.1,29.34,WSW,247,0.0,0.0,84,0.00,,,0.00,WUHU21623XXSP,2013-03-12 07:05:00,
2013-03-12 03:06:00,34.5,30.1,29.34,WSW,247,0.0,0.0,84,0.00,,,0.00,WUHU21623XXSP,2013-03-12 07:06:00,
2013-03-12 03:09:00,34.5,30.1,29.34,WSW,247,0.0,0.0,84,0.00,,,0.00,WUHU21623XXSP,2013-03-12 07:09:00,
2013-03-12 03:10:00,34.7,30.3,29.34,WSW,247,0.0,0.0,84,0.00,,,0.00,WUHU21623XXSP,2013-03-12 07:10:00,
2013-03-12 03:11:00,34.7,30.3,29.34,WSW,247,0.0,0.0,84,0.00,,,0.00,WUHU21623XXSP,2013-03-12 07:11:00,
2013-03-12 03:14:00,34.5,30.1,29.34,SW,225,0.0,0.0,84,0.00,,,0.00,WUHU21623XXSP,2013-03-12 07:14:00,
2013-03-12 03:16:00,34.5,30.1,29.34,SW,225,0.0,0.0,84,0.00,,,0.00,WUHU21623XXSP,2013-03-12 07:16:00,
2013-03-12 03:17:00,34.5,30.1,29.35,WSW,247,0.0,0.0,84,0.00,,,0.00,WUHU21623XXSP,2013-03-12 07:17:00,
2013-03-12 03:19:00,34.5,30.1,29.34,WSW,247,0.0,0.0,84,0.00,,,0.00,WUHU21623XXSP,2013-03-12 07:19:00,
2013-03-12 03:21:00,34.5,30.1,29.34,WSW,247,0.0,0.0,84,0.00,,,0.00,WUHU21623XXSP,2013-03-12 07:21:00,
2013-03-12 03:22:00,34.5,30.1,29.34,WSW,247,0.0,0.0,84,0.00,,,0.00,WUHU21623XXSP,2013-03-12 07:22:00,
2013-03-12 03:24:00,34.5,30.1,29.35,WSW,247,0.0,0.0,84,0.00,,,0.00,WUHU21623XXSP,2013-03-12 07:24:00,
2013-03-12 03:27:00,34.5,30.1,29.35,WSW,247,0.0,0.0,84,0.00,,,0.00,WUHU21623XXSP,2013-03-12 07:27:00,
2013-03-12 03:29:00,34.5,30.1,29.35,WSW,247,0.0,0.0,84,0.00,,,0.00,WUHU21623XXSP,2013-03-12 07:29:00,
2013-03-12 03:32:00,34.5,30.1,29.35,WSW,247,0.0,0.0,84,0.00,,,0.00,WUHU21623XXSP,2013-03-12 07:32:00,
2013-03-12 03:35:00,34.3,29.9,29.35,WSW,247,0.0,0.0,84,0.00,,,0.00,WUHU21623XXSP,2013-03-12 07:35:00,
2013-03-12 03:37:00,34.5,30.1,29.35,WSW,247,0.0,0.0,84,0.00,,,0.00,WUHU21623XXSP,2013-03-12 07:37:00,
2013-03-12 03:40:00,34.3,29.9,29.35,WSW,247,0.0,0.0,84,0.00,,,0.00,WUHU21623XXSP,2013-03-12 07:40:00,
2013-03-12 03:42:00,34.3,29.9,29.35,WSW,247,0.0,0.0,84,0.00,,,0.00,WUHU21623XXSP,2013-03-12 07:42:00,
2013-03-12 03:43:00,34.3,29.9,29.35,WSW,247,0.0,0.0,84,0.00,,,0.00,WUHU21623XXSP,2013-03-12 07:43:00,
2013-03-12 03:45:00,34.5,29.8,29.35,WSW,247,0.0,0.0,83,0.00,,,0.00,WUHU21623XXSP,2013-03-12 07:45:00,
2013-03-12 03:47:00,34.3,29.6,29.35,WSW,247,0.0,0.0,83,0.00,,,0.00,WUHU21623XXSP,2013-03-12 07:47:00,
2013-03-12 03:48:00,34.3,29.6,29.35,WSW,247,0.0,0.0,83,0.00,,,0.00,WUHU21623XXSP,2013-03-12 07:48:00,
2013-03-12 03:50:00,34.3,29.6,29.35,SW,225,0.0,0.0,83,0.00,,,0.00,WUHU21623XXSP,2013-03-12 07:50:00,
2013-03-12 03:52:00,34.3,29.6,29.35,WSW,247,0.0,0.0,83,0.00,,,0.00,WUHU21623XXSP,2013-03-12 07:52:00,
2013-03-12 03:53:00,34.3,29.6,29.35,WSW,247,0.0,0.0,83,0.00,,,0.00,WUHU21623XXSP,2013-03-12 07:53:00,
2013-03-12 03:55:00,34.3,29.6,29.35,WSW,247,0.0,0.0,83,0.00,,,0.00,WUHU21623XXSP,2013-03-12 07:55:00,
2013-03-12 03:57:00,34.3,29.6,29.35,SW,225,0.0,0.0,83,0.00,,,0.00,WUHU21623XXSP,2013-03-12 07:57:00,
2013-03-12 03:58:00,34.3,29.6,29.35,SW,225,0.0,0.0,83,0.00,,,0.00,WUHU21623XXSP,2013-03-12 07:58:00,
2013-03-12 04:00:00,34.3,29.6,29.35,WSW,247,0.0,0.0,83,0.00,,,0.00,WUHU21623XXSP,2013-03-12 08:00:00,
2013-03-12 04:03:00,34.3,29.6,29.35,WSW,247,0.0,0.0,83,0.00,,,0.00,WUHU21623XXSP,2013-03-12 08:03:00,
2013-03-12 04:05:00,34.3,29.6,29.35,WSW,247,0.0,0.0,83,0.00,,,0.00,WUHU21623XXSP,2013-03-12 08:05:00,
2013-03-12 04:08:00,34.3,29.6,29.35,WSW,247,0.0,0.0,83,0.00,,,0.00,WUHU21623XXSP,2013-03-12 08:08:00,
2013-03-12 04:10:00,34.3,29.6,29.35,WSW,247,0.0,0.0,83,0.00,,,0.00,WUHU21623XXSP,2013-03-12 08:10:00,
2013-03-12 04:13:00,34.3,29.6,29.35,WSW,247,0.0,0.0,83,0.00,,,0.00,WUHU21623XXSP,2013-03-12 08:13:00,
2013-03-12 04:14:00,34.3,29.6,29.35,WSW,247,0.0,0.0,83,0.00,,,0.00,WUHU21623XXSP,2013-03-12 08:14:00,
2013-03-12 04:15:00,34.3,29.6,29.35,WSW,247,0.0,0.0,83,0.00,,,0.00,WUHU21623XXSP,2013-03-12 08:15:00,
2013-03-12 04:18:00,34.3,29.6,29.35,WSW,247,0.0,0.0,83,0.00,,,0.00,WUHU21623XXSP,2013-03-12 08:18:00,
2013-03-12 04:19:00,34.3,29.6,29.35,WSW,247,0.0,0.0,83,0.00,,,0.00,WUHU21623XXSP,2013-03-12 08:19:00,
2013-03-12 04:20:00,34.3,29.6,29.35,WSW,247,0.0,0.0,83,0.00,,,0.00,WUHU21623XXSP,2013-03-12 08:20:00,
2013-03-12 04:24:00,34.3,29.6,29.35,WSW,247,0.0,0.0,83,0.00,,,0.00,WUHU21623XXSP,2013-03-12 08:24:00,
2013-03-12 04:27:00,34.3,29.3,29.35,WSW,247,0.0,0.0,82,0.00,,,0.00,WUHU21623XXSP,2013-03-12 08:27:00,
2013-03-12 04:29:00,34.3,29.3,29.36,WSW,247,0.0,0.0,82,0.00,,,0.00,WUHU21623XXSP,2013-03-12 08:29:00,
2013-03-12 04:30:00,34.3,29.3,29.36,WSW,247,0.0,0.0,82,0.00,,,0.00,WUHU21623XXSP,2013-03-12 08:30:00,
2013-03-12 04:32:00,34.3,29.3,29.36,WSW,247,0.0,0.0,83,0.00,,,0.00,WUHU21623XXSP,2013-03-12 08:32:00,
2013-03-12 04:34:00,34.3,29.6,29.36,WSW,247,0.0,0.0,83,0.00,,,0.00,WUHU21623XXSP,2013-03-12 08:34:00,
2013-03-12 04:35:00,34.3,29.6,29.36,WSW,247,0.0,0.0,83,0.00,,,0.00,WUHU21623XXSP,2013-03-12 08:35:00,
2013-03-12 04:37:00,34.3,29.6,29.36,WSW,247,0.0,0.0,83,0.00,,,0.00,WUHU21623XXSP,2013-03-12 08:37:00,
2013-03-12 04:39:00,34.3,29.6,29.36,WSW,247,0.0,0.0,83,0.00,,,0.00,WUHU21623XXSP,2013-03-12 08:39:00,
2013-03-12 04:40:00,34.2,29.4,29.36,WSW,247,0.0,0.0,83,0.00,,,0.00,WUHU21623XXSP,2013-03-12 08:40:00,
2013-03-12 04:43:00,34.2,29.4,29.36,WSW,247,0.0,0.0,83,0.00,,,0.00,WUHU21623XXSP,2013-03-12 08:43:00,
2013-03-12 04:44:00,34.2,29.4,29.36,WSW,247,0.0,0.0,83,0.00,,,0.00,WUHU21623XXSP,2013-03-12 08:44:00,
2013-03-12 04:45:00,34.2,29.4,29.36,WSW,247,0.0,0.0,83,0.00,,,0.00,WUHU21623XXSP,2013-03-12 08:45:00,
2013-03-12 04:48:00,34.2,29.4,29.36,West,270,0.0,0.0,83,0.00,,,0.00,WUHU21623XXSP,2013-03-12 08:48:00,
2013-03-12 04:49:00,34.2,29.4,29.36,WSW,247,0.0,0.0,83,0.00,,,0.00,WUHU21623XXSP,2013-03-12 08:49:00,
2013-03-12 04:50:00,34.2,29.4,29.36,WSW,247,0.0,0.0,83,0.00,,,0.00,WUHU21623XXSP,2013-03-12 08:50:00,
2013-03-12 04:51:00,34.2,29.4,29.36,WSW,247,0.0,0.0,83,0.00,,,0.00,WUHU21623XXSP,2013-03-12 08:51:00,
2013-03-12 04:53:00,34.2,29.4,29.36,WSW,247,0.0,0.0,83,0.00,,,0.00,WUHU21623XXSP,2013-03-12 08:53:00,
2013-03-12 04:54:00,34.2,29.4,29.36,WSW,247,0.0,0.0,83,0.00,,,0.00,WUHU21623XXSP,2013-03-12 08:54:00,
2013-03-12 04:55:00,34.2,29.4,29.36,WSW,247,0.0,0.0,83,0.00,,,0.00,WUHU21623XXSP,2013-03-12 08:55:00,
2013-03-12 04:56:00,34.2,29.4,29.36,WSW,247,0.0,0.0,83,0.00,,,0.00,WUHU21623XXSP,2013-03-12 08:56:00,
2013-03-12 04:58:00,34.0,29.3,29.36,SW,225,0.0,0.0,83,0.00,,,0.00,WUHU21623XXSP,2013-03-12 08:58:00,
2013-03-12 05:00:00,34.0,29.3,29.36,WSW,247,0.0,0.0,83,0.00,,,0.00,WUHU21623XXSP,2013-03-12 09:00:00,
2013-03-12 05:01:00,34.0,29.3,29.36,WSW,247,0.0,0.0,83,0.00,,,0.00,WUHU21623XXSP,2013-03-12 09:01:00,
2013-03-12 05:03:00,34.0,29.3,29.36,WSW,247,0.0,0.0,83,0.00,,,0.00,WUHU21623XXSP,2013-03-12 09:03:00,
2013-03-12 05:05:00,34.0,29.3,29.36,WSW,247,0.0,0.0,83,0.00,,,0.00,WUHU21623XXSP,2013-03-12 09:05:00,
2013-03-12 05:07:00,34.0,29.3,29.36,SW,225,0.0,0.0,83,0.00,,,0.00,WUHU21623XXSP,2013-03-12 09:07:00,
2013-03-12 05:08:00,34.0,29.3,29.36,SW,225,0.0,0.0,83,0.00,,,0.00,WUHU21623XXSP,2013-03-12 09:08:00,
2013-03-12 05:10:00,33.8,29.1,29.36,WSW,247,0.0,0.0,83,0.00,,,0.00,WUHU21623XXSP,2013-03-12 09:10:00,
2013-03-12 05:11:00,33.8,29.1,29.36,WSW,247,0.0,0.0,83,0.00,,,0.00,WUHU21623XXSP,2013-03-12 09:11:00,
2013-03-12 05:12:00,33.8,29.1,29.37,SW,225,0.0,0.0,83,0.00,,,0.00,WUHU21623XXSP,2013-03-12 09:12:00,
2013-03-12 05:13:00,33.8,29.1,29.37,SW,225,0.0,0.0,83,0.00,,,0.00,WUHU21623XXSP,2013-03-12 09:13:00,
2013-03-12 05:15:00,33.6,28.9,29.37,SW,225,0.0,0.0,83,0.00,,,0.00,WUHU21623XXSP,2013-03-12 09:15:00,
2013-03-12 05:16:00,33.6,28.9,29.37,SW,225,0.0,0.0,83,0.00,,,0.00,WUHU21623XXSP,2013-03-12 09:16:00,
2013-03-12 05:17:00,33.6,29.2,29.36,WSW,247,0.0,0.0,84,0.00,,,0.00,WUHU21623XXSP,2013-03-12 09:17:00,
2013-03-12 05:18:00,33.6,29.2,29.37,WSW,247,0.0,0.0,84,0.00,,,0.00,WUHU21623XXSP,2013-03-12 09:18:00,
2013-03-12 05:20:00,33.6,29.2,29.37,SW,225,0.0,0.0,84,0.00,,,0.00,WUHU21623XXSP,2013-03-12 09:20:00,
2013-03-12 05:21:00,33.6,29.2,29.37,SW,225,0.0,0.0,84,0.00,,,0.00,WUHU21623XXSP,2013-03-12 09:21:00,
2013-03-12 05:22:00,33.6,29.2,29.37,SW,225,0.0,0.0,84,0.00,,,0.00,WUHU21623XXSP,2013-03-12 09:22:00,
2013-03-12 05:24:00,33.6,29.2,29.37,SW,225,0.0,0.0,84,0.00,,,0.00,WUHU21623XXSP,2013-03-12 09:24:00,
2013-03-12 05:25:00,33.6,29.2,29.37,WSW,247,0.0,0.0,84,0.00,,,0.00,WUHU21623XXSP,2013-03-12 09:25:00,
2013-03-12 05:26:00,33.6,29.2,29.37,WSW,247,0.0,0.0,84,0.00,,,0.00,WUHU21623XXSP,2013-03-12 09:26:00,
2013-03-12 05:28:00,33.6,29.2,29.37,WSW,247,0.0,0.0,84,0.00,,,0.00,WUHU21623XXSP,2013-03-12 09:28:00,
2013-03-12 05:29:00,33.6,29.2,29.37,SW,225,0.0,0.0,84,0.00,,,0.00,WUHU21623XXSP,2013-03-12 09:29:00,
2013-03-12 05:30:00,33.6,29.2,29.37,SW,225,0.0,0.0,84,0.00,,,0.00,WUHU21623XXSP,2013-03-12 09:30:00,
2013-03-12 05:31:00,33.6,29.2,29.37,SW,225,0.0,0.0,84,0.00,,,0.00,WUHU21623XXSP,2013-03-12 09:31:00,
2013-03-12 05:33:00,33.6,29.2,29.37,SW,225,0.0,0.0,84,0.00,,,0.00,WUHU21623XXSP,2013-03-12 09:33:00,
2013-03-12 05:34:00,33.4,29.0,29.37,WSW,247,0.0,0.0,84,0.00,,,0.00,WUHU21623XXSP,2013-03-12 09:34:00,
2013-03-12 05:35:00,33.4,29.0,29.37,SW,225,0.0,0.0,84,0.00,,,0.00,WUHU21623XXSP,2013-03-12 09:35:00,
2013-03-12 05:37:00,33.4,29.0,29.37,SW,225,0.0,0.0,84,0.00,,,0.00,WUHU21623XXSP,2013-03-12 09:37:00,
2013-03-12 05:38:00,33.4,29.0,29.37,SW,225,0.0,0.0,84,0.00,,,0.00,WUHU21623XXSP,2013-03-12 09:38:00,
2013-03-12 05:39:00,33.4,29.0,29.37,SW,225,0.0,0.0,84,0.00,,,0.00,WUHU21623XXSP,2013-03-12 09:39:00,
2013-03-12 05:41:00,33.4,29.3,29.37,WSW,247,0.0,0.0,85,0.00,,,0.00,WUHU21623XXSP,2013-03-12 09:41:00,
2013-03-12 05:42:00,33.4,29.3,29.37,SW,225,0.0,0.0,85,0.00,,,0.00,WUHU21623XXSP,2013-03-12 09:42:00,
2013-03-12 05:43:00,33.4,29.3,29.37,SW,225,0.0,0.0,85,0.00,,,0.00,WUHU21623XXSP,2013-03-12 09:43:00,
2013-03-12 05:44:00,33.4,29.3,29.38,WSW,247,0.0,0.0,85,0.00,,,0.00,WUHU21623XXSP,2013-03-12 09:44:00,
2013-03-12 05:46:00,33.4,29.3,29.38,WSW,247,0.0,0.0,85,0.00,,,0.00,WUHU21623XXSP,2013-03-12 09:46:00,
2013-03-12 05:47:00,33.4,29.3,29.37,SW,225,0.0,0.0,85,0.00,,,0.00,WUHU21623XXSP,2013-03-12 09:47:00,
2013-03-12 05:48:00,33.4,29.3,29.38,SW,225,0.0,0.0,85,0.00,,,0.00,WUHU21623XXSP,2013-03-12 09:48:00,
2013-03-12 05:49:00,33.4,29.3,29.38,SW,225,0.0,0.0,85,0.00,,,0.00,WUHU21623XXSP,2013-03-12 09:49:00,
2013-03-12 05:51:00,33.4,29.3,29.38,SW,225,0.0,0.0,85,0.00,,,0.00,WUHU21623XXSP,2013-03-12 09:51:00,
2013-03-12 05:52:00,33.4,29.3,29.38,SW,225,0.0,0.0,85,0.00,,,0.00,WUHU21623XXSP,2013-03-12 09:52:00,
2013-03-12 05:53:00,33.4,29.3,29.38,WSW,247,0.0,0.0,85,0.00,,,0.00,WUHU21623XXSP,2013-03-12 09:53:00,
2013-03-12 05:54:00,33.4,29.3,29.38,SSW,202,0.0,0.0,85,0.00,,,0.00,WUHU21623XXSP,2013-03-12 09:54:00,
2013-03-12 05:56:00,33.4,29.3,29.38,SSW,202,0.0,0.0,85,0.00,,,0.00,WUHU21623XXSP,2013-03-12 09:56:00,
2013-03-12 05:57:00,33.4,29.3,29.38,SW,225,0.0,0.0,85,0.00,,,0.00,WUHU21623XXSP,2013-03-12 09:57:00,
2013-03-12 05:58:00,33.4,29.3,29.38,SW,225,0.0,0.0,85,0.00,,,0.00,WUHU21623XXSP,2013-03-12 09:58:00,
2013-03-12 06:00:00,33.4,29.3,29.38,SSW,202,0.0,0.0,85,0.00,,,0.00,WUHU21623XXSP,2013-03-12 10:00:00,
2013-03-12 06:01:00,33.4,29.3,29.38,SSW,202,0.0,0.0,85,0.00,,,0.00,WUHU21623XXSP,2013-03-12 10:01:00,
2013-03-12 06:02:00,33.4,29.3,29.38,SW,225,0.0,0.0,85,0.00,,,0.00,WUHU21623XXSP,2013-03-12 10:02:00,
2013-03-12 06:03:00,33.4,29.3,29.38,SSW,202,0.0,0.0,85,0.00,,,0.00,WUHU21623XXSP,2013-03-12 10:03:00,
2013-03-12 06:05:00,33.4,29.3,29.38,SSW,202,0.0,0.0,85,0.00,,,0.00,WUHU21623XXSP,2013-03-12 10:05:00,
2013-03-12 06:06:00,33.4,29.0,29.38,SW,225,0.0,0.0,84,0.00,,,0.00,WUHU21623XXSP,2013-03-12 10:06:00,
2013-03-12 06:07:00,33.4,29.0,29.38,SW,225,0.0,0.0,84,0.00,,,0.00,WUHU21623XXSP,2013-03-12 10:07:00,
2013-03-12 06:09:00,33.4,29.0,29.38,SW,225,0.0,0.0,84,0.00,,,0.00,WUHU21623XXSP,2013-03-12 10:09:00,
2013-03-12 06:10:00,33.4,29.0,29.38,SW,225,0.0,0.0,84,0.00,,,0.00,WUHU21623XXSP,2013-03-12 10:10:00,
2013-03-12 06:12:00,33.4,29.0,29.38,SSW,202,0.0,0.0,84,0.00,,,0.00,WUHU21623XXSP,2013-03-12 10:12:00,
2013-03-12 06:14:00,33.4,29.0,29.38,WSW,247,0.0,0.0,84,0.00,,,0.00,WUHU21623XXSP,2013-03-12 10:14:00,
2013-03-12 06:15:00,33.4,29.0,29.38,WSW,247,0.0,0.0,84,0.00,,,0.00,WUHU21623XXSP,2013-03-12 10:15:00,
2013-03-12 06:17:00,33.4,29.0,29.38,SW,225,0.0,0.0,84,0.00,,,0.00,WUHU21623XXSP,2013-03-12 10:17:00,
2013-03-12 06:18:00,33.4,29.0,29.38,SW,225,0.0,0.0,84,0.00,,,0.00,WUHU21623XXSP,2013-03-12 10:18:00,
2013-03-12 06:19:00,33.4,29.0,29.38,SW,225,0.0,0.0,84,0.00,,,0.00,WUHU21623XXSP,2013-03-12 10:19:00,
2013-03-12 06:20:00,33.4,29.0,29.38,SSW,202,0.0,0.0,84,0.00,,,0.00,WUHU21623XXSP,2013-03-12 10:20:00,
2013-03-12 06:22:00,33.4,29.0,29.38,SW,225,0.0,0.0,84,0.00,,,0.00,WUHU21623XXSP,2013-03-12 10:22:00,
2013-03-12 06:23:00,33.4,29.0,29.38,SW,225,0.0,0.0,84,0.00,,,0.00,WUHU21623XXSP,2013-03-12 10:23:00,
2013-03-12 06:24:00,33.4,29.0,29.38,SW,225,0.0,0.0,84,0.00,,,0.00,WUHU21623XXSP,2013-03-12 10:24:00,
2013-03-12 06:25:00,33.4,29.0,29.38,SW,225,0.0,0.0,84,0.00,,,0.00,WUHU21623XXSP,2013-03-12 10:25:00,
2013-03-12 06:28:00,33.4,29.0,29.39,SW,225,0.0,0.0,84,0.00,,,0.00,WUHU21623XXSP,2013-03-12 10:28:00,
2013-03-12 06:30:00,33.4,29.0,29.38,SW,225,0.0,0.0,84,0.00,,,0.00,WUHU21623XXSP,2013-03-12 10:30:00,
2013-03-12 06:33:00,33.4,29.0,29.39,SW,225,0.0,0.0,84,0.00,,,0.00,WUHU21623XXSP,2013-03-12 10:33:00,
2013-03-12 06:35:00,33.4,29.0,29.39,SW,225,0.0,0.0,84,0.00,,,0.00,WUHU21623XXSP,2013-03-12 10:35:00,
2013-03-12 06:36:00,33.4,29.0,29.39,SW,225,0.0,0.0,84,0.00,,,0.00,WUHU21623XXSP,2013-03-12 10:36:00,
2013-03-12 06:38:00,33.4,29.0,29.39,SW,225,0.0,0.0,84,0.00,,,0.00,WUHU21623XXSP,2013-03-12 10:38:00,
2013-03-12 06:40:00,33.4,29.0,29.39,SW,225,0.0,0.0,84,0.00,,,0.00,WUHU21623XXSP,2013-03-12 10:40:00,
2013-03-12 06:42:00,33.4,29.0,29.39,SW,225,0.0,0.0,84,0.00,,,0.00,WUHU21623XXSP,2013-03-12 10:42:00,
2013-03-12 06:43:00,33.4,29.0,29.39,SW,225,0.0,0.0,84,0.00,,,0.00,WUHU21623XXSP,2013-03-12 10:43:00,
2013-03-12 06:45:00,33.4,29.0,29.39,SW,225,0.0,0.0,84,0.00,,,0.00,WUHU21623XXSP,2013-03-12 10:45:00,
2013-03-12 06:47:00,33.4,29.0,29.39,WSW,247,0.0,0.0,84,0.00,,,0.00,WUHU21623XXSP,2013-03-12 10:47:00,
2013-03-12 06:48:00,33.4,29.0,29.39,WSW,247,0.0,0.0,84,0.00,,,0.00,WUHU21623XXSP,2013-03-12 10:48:00,
2013-03-12 06:50:00,33.4,29.0,29.40,WSW,247,0.0,0.0,84,0.00,,,0.00,WUHU21623XXSP,2013-03-12 10:50:00,
2013-03-12 06:52:00,33.4,29.0,29.40,WSW,247,0.0,0.0,84,0.00,,,0.00,WUHU21623XXSP,2013-03-12 10:52:00,
2013-03-12 06:53:00,33.4,29.0,29.40,WSW,247,0.0,0.0,84,0.00,,,0.00,WUHU21623XXSP,2013-03-12 10:53:00,
2013-03-12 06:56:00,33.4,29.0,29.39,WSW,247,0.0,0.0,84,0.00,,,0.00,WUHU21623XXSP,2013-03-12 10:56:00,
2013-03-12 06:58:00,33.4,29.0,29.39,WSW,247,0.0,0.0,84,0.00,,,0.00,WUHU21623XXSP,2013-03-12 10:58:00,
2013-03-12 06:59:00,33.4,29.0,29.39,WSW,247,0.0,0.0,84,0.00,,,0.00,WUHU21623XXSP,2013-03-12 10:59:00,
2013-03-12 07:01:00,33.4,29.0,29.39,WSW,247,0.0,0.0,84,0.00,,,0.00,WUHU21623XXSP,2013-03-12 11:01:00,
2013-03-12 07:03:00,33.4,29.0,29.40,WSW,247,0.0,0.0,84,0.00,,,0.00,WUHU21623XXSP,2013-03-12 11:03:00,
2013-03-12 07:04:00,33.4,29.0,29.40,WSW,247,0.0,0.0,84,0.00,,,0.00,WUHU21623XXSP,2013-03-12 11:04:00,
2013-03-12 07:06:00,33.4,29.0,29.39,WSW,247,0.0,0.0,84,0.00,,,0.00,WUHU21623XXSP,2013-03-12 11:06:00,
2013-03-12 07:08:00,33.3,28.9,29.40,WSW,247,0.0,0.0,84,0.00,,,0.00,WUHU21623XXSP,2013-03-12 11:08:00,
2013-03-12 07:09:00,33.3,28.9,29.40,WSW,247,0.0,0.0,84,0.00,,,0.00,WUHU21623XXSP,2013-03-12 11:09:00,
2013-03-12 07:11:00,33.3,28.9,29.40,WSW,247,0.0,0.0,84,0.00,,,0.00,WUHU21623XXSP,2013-03-12 11:11:00,
2013-03-12 07:13:00,33.3,28.9,29.40,WSW,247,0.0,0.0,84,0.00,,,0.00,WUHU21623XXSP,2013-03-12 11:13:00,
2013-03-12 07:14:00,33.3,28.9,29.40,WSW,247,0.0,0.0,84,0.00,,,0.00,WUHU21623XXSP,2013-03-12 11:14:00,
2013-03-12 07:17:00,33.3,28.9,29.40,SW,225,0.0,0.0,84,0.00,,,0.00,WUHU21623XXSP,2013-03-12 11:17:00,
2013-03-12 07:18:00,33.3,29.2,29.40,SW,225,0.0,0.0,85,0.00,,,0.00,WUHU21623XXSP,2013-03-12 11:18:00,
2013-03-12 07:19:00,33.3,29.2,29.40,SW,225,0.0,0.0,85,0.00,,,0.00,WUHU21623XXSP,2013-03-12 11:19:00,
2013-03-12 07:22:00,33.3,29.2,29.40,SW,225,0.0,0.0,85,0.00,,,0.00,WUHU21623XXSP,2013-03-12 11:22:00,
2013-03-12 07:23:00,33.1,29.0,29.40,SW,225,0.0,0.0,85,0.00,,,0.00,WUHU21623XXSP,2013-03-12 11:23:00,
2013-03-12 07:24:00,33.3,29.2,29.40,WSW,247,0.0,0.0,85,0.00,,,0.00,WUHU21623XXSP,2013-03-12 11:24:00,
2013-03-12 07:27:00,33.1,29.0,29.41,WSW,247,0.0,0.0,85,0.00,,,0.00,WUHU21623XXSP,2013-03-12 11:27:00,
2013-03-12 07:29:00,33.1,29.0,29.41,SSW,202,0.0,0.0,85,0.00,,,0.00,WUHU21623XXSP,2013-03-12 11:29:00,
2013-03-12 07:30:00,33.1,29.0,29.41,SSW,202,0.0,0.0,85,0.00,,,0.00,WUHU21623XXSP,2013-03-12 11:30:00,
2013-03-12 07:32:00,33.1,29.0,29.40,SSW,202,0.0,0.0,85,0.00,,,0.00,WUHU21623XXSP,2013-03-12 11:32:00,
2013-03-12 07:34:00,33.1,29.0,29.40,SW,225,0.0,0.0,85,0.00,,,0.00,WUHU21623XXSP,2013-03-12 11:34:00,
2013-03-12 07:35:00,33.1,29.0,29.40,SW,225,0.0,0.0,85,0.00,,,0.00,WUHU21623XXSP,2013-03-12 11:35:00,
2013-03-12 07:37:00,33.1,29.0,29.41,SSW,202,0.0,0.0,85,0.00,,,0.00,WUHU21623XXSP,2013-03-12 11:37:00,
2013-03-12 07:39:00,33.1,29.0,29.40,SSW,202,0.0,0.0,85,0.00,,,0.00,WUHU21623XXSP,2013-03-12 11:39:00,
2013-03-12 07:40:00,33.1,29.0,29.40,SSW,202,0.0,0.0,85,0.00,,,0.00,WUHU21623XXSP,2013-03-12 11:40:00,
2013-03-12 07:42:00,33.1,29.0,29.40,SSW,202,0.0,0.0,85,0.00,,,0.00,WUHU21623XXSP,2013-03-12 11:42:00,
2013-03-12 07:45:00,33.1,29.0,29.40,SSW,202,0.0,0.0,85,0.00,,,0.00,WUHU21623XXSP,2013-03-12 11:45:00,
2013-03-12 07:48:00,33.1,29.0,29.40,SW,225,0.0,0.0,85,0.00,,,0.00,WUHU21623XXSP,2013-03-12 11:48:00,
2013-03-12 07:50:00,33.1,29.0,29.40,SSW,202,0.0,0.0,85,0.00,,,0.00,WUHU21623XXSP,2013-03-12 11:50:00,
2013-03-12 07:51:00,33.1,29.0,29.40,SSW,202,0.0,0.0,85,0.00,,,0.00,WUHU21623XXSP,2013-03-12 11:51:00,
2013-03-12 07:53:00,33.1,29.0,29.41,SW,225,0.0,0.0,85,0.00,,,0.00,WUHU21623XXSP,2013-03-12 11:53:00,
2013-03-12 07:55:00,33.1,29.0,29.41,SSW,202,0.0,0.0,85,0.00,,,0.00,WUHU21623XXSP,2013-03-12 11:55:00,
2013-03-12 07:57:00,33.1,29.0,29.41,SW,225,0.0,0.0,85,0.00,,,0.00,WUHU21623XXSP,2013-03-12 11:57:00,
2013-03-12 07:58:00,33.1,29.0,29.41,SW,225,0.0,0.0,85,0.00,,,0.00,WUHU21623XXSP,2013-03-12 11:58:00,
2013-03-12 08:00:00,33.1,29.0,29.41,SW,225,0.0,0.0,85,0.00,,,0.00,WUHU21623XXSP,2013-03-12 12:00:00,
2013-03-12 08:02:00,33.1,29.0,29.41,SW,225,0.0,0.0,85,0.00,,,0.00,WUHU21623XXSP,2013-03-12 12:02:00,
2013-03-12 08:03:00,33.1,29.0,29.41,SW,225,0.0,0.0,85,0.00,,,0.00,WUHU21623XXSP,2013-03-12 12:03:00,
2013-03-12 08:05:00,32.9,28.9,29.41,SW,225,0.0,0.0,85,0.00,,,0.00,WUHU21623XXSP,2013-03-12 12:05:00,
2013-03-12 08:07:00,33.1,29.0,29.41,SSW,202,0.0,0.0,85,0.00,,,0.00,WUHU21623XXSP,2013-03-12 12:07:00,
2013-03-12 08:08:00,33.1,29.0,29.41,SSW,202,0.0,0.0,85,0.00,,,0.00,WUHU21623XXSP,2013-03-12 12:08:00,
2013-03-12 08:11:00,32.9,28.9,29.41,SSW,202,0.0,0.0,85,0.00,,,0.00,WUHU21623XXSP,2013-03-12 12:11:00,
2013-03-12 08:12:00,32.9,28.9,29.41,SW,225,0.0,0.0,85,0.00,,,0.00,WUHU21623XXSP,2013-03-12 12:12:00,
2013-03-12 08:13:00,32.9,28.9,29.41,SW,225,0.0,0.0,85,0.00,,,0.00,WUHU21623XXSP,2013-03-12 12:13:00,
2013-03-12 08:14:00,32.9,28.9,29.41,SW,225,0.0,0.0,85,0.00,,,0.00,WUHU21623XXSP,2013-03-12 12:14:00,
2013-03-12 08:16:00,32.9,28.9,29.41,SSW,202,0.0,0.0,85,0.00,,,0.00,WUHU21623XXSP,2013-03-12 12:16:00,
2013-03-12 08:17:00,32.9,28.9,29.41,SSW,202,0.0,0.0,85,0.00,,,0.00,WUHU21623XXSP,2013-03-12 12:17:00,
2013-03-12 08:18:00,32.9,28.9,29.41,SW,225,0.0,0.0,85,0.00,,,0.00,WUHU21623XXSP,2013-03-12 12:18:00,
2013-03-12 08:19:00,32.9,28.9,29.41,SW,225,0.0,0.0,85,0.00,,,0.00,WUHU21623XXSP,2013-03-12 12:19:00,
2013-03-12 08:21:00,33.1,29.0,29.41,SW,225,0.0,0.0,85,0.00,,,0.00,WUHU21623XXSP,2013-03-12 12:21:00,
2013-03-12 08:23:00,33.1,29.0,29.41,SW,225,0.0,0.0,85,0.00,,,0.00,WUHU21623XXSP,2013-03-12 12:23:00,
2013-03-12 08:24:00,32.9,28.9,29.41,SW,225,0.0,0.0,85,0.00,,,0.00,WUHU21623XXSP,2013-03-12 12:24:00,
2013-03-12 08:26:00,32.9,28.9,29.41,SW,225,0.0,0.0,85,0.00,,,0.00,WUHU21623XXSP,2013-03-12 12:26:00,
2013-03-12 08:28:00,33.1,29.0,29.41,SSW,202,0.0,0.0,85,0.00,,,0.00,WUHU21623XXSP,2013-03-12 12:28:00,
2013-03-12 08:29:00,33.1,29.0,29.42,SW,225,0.0,0.0,85,0.00,,,0.00,WUHU21623XXSP,2013-03-12 12:29:00,
2013-03-12 08:32:00,33.1,29.3,29.41,WSW,247,0.0,0.0,86,0.00,,,0.00,WUHU21623XXSP,2013-03-12 12:32:00,
2013-03-12 08:33:00,33.1,29.3,29.41,SW,225,0.0,0.0,86,0.00,,,0.00,WUHU21623XXSP,2013-03-12 12:33:00,
2013-03-12 08:34:00,33.1,29.3,29.41,SW,225,0.0,0.0,86,0.00,,,0.00,WUHU21623XXSP,2013-03-12 12:34:00,
2013-03-12 08:37:00,33.1,29.3,29.41,SW,225,0.0,0.0,86,0.00,,,0.00,WUHU21623XXSP,2013-03-12 12:37:00,
2013-03-12 08:38:00,33.1,29.3,29.41,SW,225,0.0,0.0,86,0.00,,,0.00,WUHU21623XXSP,2013-03-12 12:38:00,
2013-03-12 08:39:00,33.1,29.3,29.41,SW,225,0.0,0.0,86,0.00,,,0.00,WUHU21623XXSP,2013-03-12 12:39:00,
2013-03-12 08:40:00,33.1,29.3,29.41,SW,225,0.0,0.0,86,0.00,,,0.00,WUHU21623XXSP,2013-03-12 12:40:00,
2013-03-12 08:42:00,33.1,29.3,29.41,SW,225,0.0,0.0,86,0.00,,,0.00,WUHU21623XXSP,2013-03-12 12:42:00,
2013-03-12 08:43:00,33.1,29.3,29.41,SW,225,0.0,0.0,86,0.00,,,0.00,WUHU21623XXSP,2013-03-12 12:43:00,
2013-03-12 08:44:00,33.1,29.3,29.42,SSW,202,0.0,0.0,86,0.00,,,0.00,WUHU21623XXSP,2013-03-12 12:44:00,
2013-03-12 08:45:00,33.1,29.3,29.42,SSW,202,0.0,0.0,86,0.00,,,0.00,WUHU21623XXSP,2013-03-12 12:45:00,
2013-03-12 08:47:00,33.3,29.5,29.42,SW,225,0.0,0.0,86,0.00,,,0.00,WUHU21623XXSP,2013-03-12 12:47:00,
2013-03-12 08:48:00,33.1,29.5,29.41,SW,225,0.0,0.0,86,0.00,,,0.00,WUHU21623XXSP,2013-03-12 12:48:00,
2013-03-12 08:49:00,33.1,29.5,29.41,SW,225,0.0,0.0,86,0.00,,,0.00,WUHU21623XXSP,2013-03-12 12:49:00,
2013-03-12 08:50:00,33.1,29.5,29.41,SW,225,0.0,0.0,86,0.00,,,0.00,WUHU21623XXSP,2013-03-12 12:50:00,
2013-03-12 08:52:00,33.1,29.3,29.42,SSW,202,0.0,0.0,86,0.00,,,0.00,WUHU21623XXSP,2013-03-12 12:52:00,
2013-03-12 08:53:00,33.3,29.5,29.42,SSW,202,0.0,0.0,86,0.00,,,0.00,WUHU21623XXSP,2013-03-12 12:53:00,
2013-03-12 08:54:00,33.3,29.5,29.42,SSW,202,0.0,0.0,86,0.00,,,0.00,WUHU21623XXSP,2013-03-12 12:54:00,
2013-03-12 08:56:00,33.3,29.5,29.42,SW,225,0.0,0.0,86,0.00,,,0.00,WUHU21623XXSP,2013-03-12 12:56:00,
2013-03-12 08:57:00,33.1,29.0,29.42,SSW,202,0.0,0.0,85,0.00,,,0.00,WUHU21623XXSP,2013-03-12 12:57:00,
2013-03-12 08:58:00,33.1,29.0,29.42,SSW,202,0.0,0.0,85,0.00,,,0.00,WUHU21623XXSP,2013-03-12 12:58:00,
2013-03-12 08:59:00,33.3,29.2,29.42,SW,225,0.0,0.0,85,0.00,,,0.00,WUHU21623XXSP,2013-03-12 12:59:00,
2013-03-12 09:02:00,33.1,29.0,29.42,WSW,247,0.0,0.0,85,0.00,,,0.00,WUHU21623XXSP,2013-03-12 13:02:00,
2013-03-12 09:03:00,33.1,29.0,29.42,WSW,247,0.0,0.0,85,0.00,,,0.00,WUHU21623XXSP,2013-03-12 13:03:00,
2013-03-12 09:04:00,33.1,29.0,29.42,WSW,247,0.0,0.0,85,0.00,,,0.00,WUHU21623XXSP,2013-03-12 13:04:00,
2013-03-12 09:07:00,33.1,29.3,29.42,WSW,247,0.0,0.0,86,0.00,,,0.00,WUHU21623XXSP,2013-03-12 13:07:00,
2013-03-12 09:09:00,33.1,29.3,29.42,WSW,247,0.0,0.0,86,0.00,,,0.00,WUHU21623XXSP,2013-03-12 13:09:00,
2013-03-12 09:12:00,33.3,29.3,29.43,SW,225,0.0,0.0,86,0.00,,,0.00,WUHU21623XXSP,2013-03-12 13:12:00,
2013-03-12 09:14:00,33.4,29.6,29.43,WSW,247,0.0,0.0,86,0.00,,,0.00,WUHU21623XXSP,2013-03-12 13:14:00,
2013-03-12 09:17:00,33.4,29.6,29.43,WSW,247,0.0,0.0,86,0.00,,,0.00,WUHU21623XXSP,2013-03-12 13:17:00,
2013-03-12 09:19:00,33.6,29.8,29.43,SW,225,0.0,0.0,86,0.00,,,0.00,WUHU21623XXSP,2013-03-12 13:19:00,
2013-03-12 09:20:00,33.6,29.8,29.43,SW,225,0.0,0.0,86,0.00,,,0.00,WUHU21623XXSP,2013-03-12 13:20:00,
2013-03-12 09:22:00,33.4,29.3,29.43,SSW,202,0.0,0.0,85,0.00,,,0.00,WUHU21623XXSP,2013-03-12 13:22:00,
2013-03-12 09:23:00,33.4,29.3,29.43,SSW,202,0.0,0.0,85,0.00,,,0.00,WUHU21623XXSP,2013-03-12 13:23:00,
2013-03-12 09:24:00,33.6,29.5,29.43,WSW,247,0.0,0.0,85,0.00,,,0.00,WUHU21623XXSP,2013-03-12 13:24:00,
2013-03-12 09:26:00,33.6,29.5,29.43,WSW,247,0.0,0.0,85,0.00,,,0.00,WUHU21623XXSP,2013-03-12 13:26:00,
2013-03-12 09:27:00,33.6,29.5,29.44,SW,225,0.0,0.0,85,0.00,,,0.00,WUHU21623XXSP,2013-03-12 13:27:00,
2013-03-12 09:28:00,33.6,29.5,29.44,SW,225,0.0,0.0,85,0.00,,,0.00,WUHU21623XXSP,2013-03-12 13:28:00,
2013-03-12 09:29:00,33.6,29.5,29.43,WSW,247,0.0,0.0,85,0.00,,,0.00,WUHU21623XXSP,2013-03-12 13:29:00,
2013-03-12 09:31:00,33.6,29.5,29.43,WSW,247,0.0,0.0,85,0.00,,,0.00,WUHU21623XXSP,2013-03-12 13:31:00,
2013-03-12 09:33:00,33.6,29.5,29.44,WSW,247,0.0,0.0,85,0.00,,,0.00,WUHU21623XXSP,2013-03-12 13:33:00,
2013-03-12 09:35:00,33.6,29.5,29.44,SSW,202,0.0,0.0,85,0.00,,,0.00,WUHU21623XXSP,2013-03-12 13:35:00,
2013-03-12 09:36:00,33.6,29.5,29.44,SSW,202,0.0,0.0,85,0.00,,,0.00,WUHU21623XXSP,2013-03-12 13:36:00,
2013-03-12 09:38:00,33.6,29.5,29.44,SSW,202,0.0,0.0,85,0.00,,,0.00,WUHU21623XXSP,2013-03-12 13:38:00,
2013-03-12 09:40:00,33.6,29.5,29.44,SW,225,0.0,0.0,85,0.00,,,0.00,WUHU21623XXSP,2013-03-12 13:40:00,
2013-03-12 09:41:00,33.6,29.5,29.44,SW,225,0.0,0.0,85,0.00,,,0.00,WUHU21623XXSP,2013-03-12 13:41:00,
2013-03-12 09:43:00,33.6,29.5,29.44,SW,225,0.0,0.0,85,0.00,,,0.00,WUHU21623XXSP,2013-03-12 13:43:00,
2013-03-12 09:45:00,33.8,29.7,29.44,SW,225,0.0,0.0,85,0.00,,,0.00,WUHU21623XXSP,2013-03-12 13:45:00,
2013-03-12 09:47:00,33.8,29.7,29.44,SW,225,0.0,0.0,85,0.00,,,0.00,WUHU21623XXSP,2013-03-12 13:47:00,
2013-03-12 09:48:00,33.6,29.5,29.44,SW,225,0.0,0.0,85,0.00,,,0.00,WUHU21623XXSP,2013-03-12 13:48:00,
2013-03-12 09:50:00,33.8,29.7,29.44,SW,225,0.0,0.0,85,0.00,,,0.00,WUHU21623XXSP,2013-03-12 13:50:00,
2013-03-12 09:52:00,33.8,29.7,29.44,SW,225,0.0,0.0,85,0.00,,,0.00,WUHU21623XXSP,2013-03-12 13:52:00,
2013-03-12 09:53:00,33.8,29.7,29.44,SW,225,0.0,0.0,85,0.00,,,0.00,WUHU21623XXSP,2013-03-12 13:53:00,
2013-03-12 09:56:00,33.8,29.9,29.44,WSW,247,0.0,0.0,86,0.00,,,0.00,WUHU21623XXSP,2013-03-12 13:56:00,
2013-03-12 09:58:00,33.8,29.9,29.44,WSW,247,0.0,0.0,86,0.00,,,0.00,WUHU21623XXSP,2013-03-12 13:58:00,
2013-03-12 09:59:00,33.8,29.9,29.44,WSW,247,0.0,0.0,86,0.00,,,0.00,WUHU21623XXSP,2013-03-12 13:59:00,
2013-03-12 10:01:00,33.8,29.9,29.44,WSW,247,0.0,0.0,86,0.00,,,0.00,WUHU21623XXSP,2013-03-12 14:01:00,
2013-03-12 10:03:00,34.0,29.9,29.44,WSW,247,0.0,0.0,86,0.00,,,0.00,WUHU21623XXSP,2013-03-12 14:03:00,
2013-03-12 10:04:00,34.0,29.9,29.44,WSW,247,0.0,0.0,86,0.00,,,0.00,WUHU21623XXSP,2013-03-12 14:04:00,
2013-03-12 10:06:00,34.0,30.1,29.44,WSW,247,0.0,0.0,86,0.00,,,0.00,WUHU21623XXSP,2013-03-12 14:06:00,
2013-03-12 10:08:00,34.2,30.1,29.44,WSW,247,0.0,0.0,86,0.00,,,0.00,WUHU21623XXSP,2013-03-12 14:08:00,
2013-03-12 10:09:00,34.2,30.1,29.44,WSW,247,0.0,0.0,86,0.00,,,0.00,WUHU21623XXSP,2013-03-12 14:09:00,
2013-03-12 10:12:00,34.3,30.2,29.44,WSW,247,0.0,0.0,85,0.00,,,0.00,WUHU21623XXSP,2013-03-12 14:12:00,
2013-03-12 10:13:00,34.3,30.2,29.44,WSW,247,0.0,0.0,85,0.00,,,0.00,WUHU21623XXSP,2013-03-12 14:13:00,
2013-03-12 10:14:00,34.3,30.2,29.44,WSW,247,0.0,0.0,85,0.00,,,0.00,WUHU21623XXSP,2013-03-12 14:14:00,
2013-03-12 10:17:00,34.3,30.2,29.44,WSW,247,0.0,0.0,85,0.00,,,0.00,WUHU21623XXSP,2013-03-12 14:17:00,
2013-03-12 10:18:00,34.2,30.0,29.44,SW,225,0.0,0.0,85,0.00,,,0.00,WUHU21623XXSP,2013-03-12 14:18:00,
2013-03-12 10:19:00,34.2,30.0,29.44,SW,225,0.0,0.0,85,0.00,,,0.00,WUHU21623XXSP,2013-03-12 14:19:00,
2013-03-12 10:23:00,34.2,30.0,29.45,WSW,247,0.0,0.0,85,0.00,,,0.00,WUHU21623XXSP,2013-03-12 14:23:00,
2013-03-12 10:24:00,34.2,30.0,29.45,WSW,247,0.0,0.0,85,0.00,,,0.00,WUHU21623XXSP,2013-03-12 14:24:00,
2013-03-12 10:28:00,34.0,29.8,29.44,WSW,247,0.0,0.0,85,0.00,,,0.00,WUHU21623XXSP,2013-03-12 14:28:00,
2013-03-12 10:29:00,34.0,29.8,29.45,SW,225,0.0,0.0,85,0.00,,,0.00,WUHU21623XXSP,2013-03-12 14:29:00,
2013-03-12 10:30:00,34.0,29.8,29.45,SW,225,0.0,0.0,85,0.00,,,0.00,WUHU21623XXSP,2013-03-12 14:30:00,
2013-03-12 10:33:00,34.0,29.8,29.45,WSW,247,0.0,0.0,85,0.00,,,0.00,WUHU21623XXSP,2013-03-12 14:33:00,
2013-03-12 10:34:00,34.0,29.8,29.45,WSW,247,0.0,0.0,85,0.00,,,0.00,WUHU21623XXSP,2013-03-12 14:34:00,
2013-03-12 10:35:00,34.0,29.8,29.45,WSW,247,0.0,0.0,85,0.00,,,0.00,WUHU21623XXSP,2013-03-12 14:35:00,
2013-03-12 10:38:00,34.2,30.0,29.45,WSW,247,0.0,0.0,85,0.00,,,0.00,WUHU21623XXSP,2013-03-12 14:38:00,
2013-03-12 10:40:00,34.2,30.0,29.45,SW,225,0.0,0.0,85,0.00,,,0.00,WUHU21623XXSP,2013-03-12 14:40:00,
2013-03-12 10:41:00,34.2,30.0,29.45,SW,225,0.0,0.0,85,0.00,,,0.00,WUHU21623XXSP,2013-03-12 14:41:00,
2013-03-12 10:43:00,34.3,30.2,29.45,WSW,247,0.0,0.0,85,0.00,,,0.00,WUHU21623XXSP,2013-03-12 14:43:00,
2013-03-12 10:45:00,34.3,30.2,29.45,WSW,247,0.0,0.0,85,0.00,,,0.00,WUHU21623XXSP,2013-03-12 14:45:00,
2013-03-12 10:46:00,34.5,30.2,29.45,WSW,247,0.0,0.0,85,0.00,,,0.00,WUHU21623XXSP,2013-03-12 14:46:00,
2013-03-12 10:48:00,34.7,30.3,29.45,SW,225,0.0,0.0,84,0.00,,,0.00,WUHU21623XXSP,2013-03-12 14:48:00,
2013-03-12 10:50:00,34.7,30.3,29.45,SW,225,0.0,0.0,84,0.00,,,0.00,WUHU21623XXSP,2013-03-12 14:50:00,
2013-03-12 10:52:00,34.9,30.5,29.45,SSW,202,0.0,0.0,84,0.00,,,0.00,WUHU21623XXSP,2013-03-12 14:52:00,
2013-03-12 10:54:00,34.7,30.3,29.45,SW,225,0.0,0.0,84,0.00,,,0.00,WUHU21623XXSP,2013-03-12 14:54:00,
2013-03-12 10:55:00,34.9,30.5,29.45,SW,225,0.0,0.0,84,0.00,,,0.00,WUHU21623XXSP,2013-03-12 14:55:00,
2013-03-12 10:56:00,34.9,30.5,29.45,SW,225,0.0,0.0,84,0.00,,,0.00,WUHU21623XXSP,2013-03-12 14:56:00,
2013-03-12 10:57:00,34.7,30.0,29.45,SW,225,0.0,0.0,83,0.00,,,0.00,WUHU21623XXSP,2013-03-12 14:57:00,
2013-03-12 10:59:00,34.9,30.2,29.45,SSW,202,0.0,0.0,83,0.00,,,0.00,WUHU21623XXSP,2013-03-12 14:59:00,
2013-03-12 11:00:00,34.9,30.2,29.45,SSW,202,0.0,0.0,83,0.00,,,0.00,WUHU21623XXSP,2013-03-12 15:00:00,
2013-03-12 11:01:00,34.7,30.0,29.45,SW,225,0.0,0.0,83,0.00,,,0.00,WUHU21623XXSP,2013-03-12 15:01:00,
2013-03-12 11:02:00,34.7,30.0,29.45,SW,225,0.0,0.0,83,0.00,,,0.00,WUHU21623XXSP,2013-03-12 15:02:00,
2013-03-12 11:04:00,34.5,29.8,29.45,SSW,202,0.0,0.0,83,0.00,,,0.00,WUHU21623XXSP,2013-03-12 15:04:00,
2013-03-12 11:06:00,34.5,29.8,29.45,WSW,247,0.0,0.0,83,0.00,,,0.00,WUHU21623XXSP,2013-03-12 15:06:00,
2013-03-12 11:07:00,34.5,29.8,29.45,WSW,247,0.0,0.0,83,0.00,,,0.00,WUHU21623XXSP,2013-03-12 15:07:00,
2013-03-12 11:09:00,34.3,29.6,29.45,SW,225,0.0,0.0,83,0.00,,,0.00,WUHU21623XXSP,2013-03-12 15:09:00,
2013-03-12 11:12:00,34.3,29.6,29.45,SSW,202,0.0,0.0,83,0.00,,,0.00,WUHU21623XXSP,2013-03-12 15:12:00,
2013-03-12 11:15:00,34.3,29.6,29.45,SW,225,0.0,0.0,83,0.00,,,0.00,WUHU21623XXSP,2013-03-12 15:15:00,
2013-03-12 11:17:00,34.3,29.6,29.45,SW,225,0.0,0.0,83,0.00,,,0.00,WUHU21623XXSP,2013-03-12 15:17:00,
2013-03-12 11:20:00,34.3,29.6,29.45,WSW,247,0.0,0.0,83,0.00,,,0.00,WUHU21623XXSP,2013-03-12 15:20:00,
2013-03-12 11:22:00,34.3,29.6,29.45,WSW,247,0.0,0.0,83,0.00,,,0.00,WUHU21623XXSP,2013-03-12 15:22:00,
2013-03-12 11:23:00,34.5,29.8,29.45,WSW,247,0.0,0.0,83,0.00,,,0.00,WUHU21623XXSP,2013-03-12 15:23:00,
2013-03-12 11:25:00,34.7,30.0,29.45,WSW,247,0.0,0.0,83,0.00,,,0.00,WUHU21623XXSP,2013-03-12 15:25:00,
2013-03-12 11:28:00,34.9,30.2,29.45,WSW,247,0.0,0.0,83,0.00,,,0.00,WUHU21623XXSP,2013-03-12 15:28:00,
2013-03-12 11:30:00,34.9,30.2,29.45,WSW,247,0.0,0.0,83,0.00,,,0.00,WUHU21623XXSP,2013-03-12 15:30:00,
2013-03-12 11:33:00,34.9,29.9,29.45,WSW,247,0.0,0.0,82,0.00,,,0.00,WUHU21623XXSP,2013-03-12 15:33:00,
2013-03-12 11:35:00,34.9,29.9,29.45,WSW,247,0.0,0.0,82,0.00,,,0.00,WUHU21623XXSP,2013-03-12 15:35:00,
2013-03-12 11:38:00,34.9,29.9,29.45,SW,225,0.0,0.0,82,0.00,,,0.00,WUHU21623XXSP,2013-03-12 15:38:00,
2013-03-12 11:40:00,34.9,29.9,29.45,SW,225,0.0,0.0,82,0.00,,,0.00,WUHU21623XXSP,2013-03-12 15:40:00,
2013-03-12 11:43:00,34.7,29.7,29.46,WSW,247,0.0,0.0,82,0.00,,,0.00,WUHU21623XXSP,2013-03-12 15:43:00,
2013-03-12 11:45:00,34.7,29.7,29.46,SW,225,0.0,0.0,82,0.00,,,0.00,WUHU21623XXSP,2013-03-12 15:45:00,
2013-03-12 11:48:00,34.5,29.5,29.46,SSW,202,0.0,0.0,82,0.00,,,0.00,WUHU21623XXSP,2013-03-12 15:48:00,
2013-03-12 11:51:00,34.3,29.3,29.46,SSW,202,0.0,0.0,82,0.00,,,0.00,WUHU21623XXSP,2013-03-12 15:51:00,
2013-03-12 11:54:00,34.3,29.3,29.46,South,180,0.0,0.0,82,0.00,,,0.00,WUHU21623XXSP,2013-03-12 15:54:00,
2013-03-12 11:56:00,34.3,29.3,29.46,South,180,0.0,0.0,82,0.00,,,0.00,WUHU21623XXSP,2013-03-12 15:56:00,
2013-03-12 11:59:00,34.3,29.3,29.46,WSW,247,0.0,0.0,82,0.00,,,0.00,WUHU21623XXSP,2013-03-12 15:59:00,
2013-03-12 12:01:00,34.3,29.3,29.46,WSW,247,0.0,0.0,82,0.00,,,0.00,WUHU21623XXSP,2013-03-12 16:01:00,
2013-03-12 12:04:00,34.3,29.3,29.46,SW,225,0.0,0.0,82,0.00,,,0.00,WUHU21623XXSP,2013-03-12 16:04:00,
2013-03-12 12:07:00,34.3,29.6,29.45,SW,225,0.0,0.0,83,0.00,,,0.00,WUHU21623XXSP,2013-03-12 16:07:00,
2013-03-12 12:09:00,34.3,29.6,29.45,SSW,202,0.0,0.0,83,0.00,,,0.00,WUHU21623XXSP,2013-03-12 16:09:00,
2013-03-12 12:12:00,34.7,29.6,29.45,SW,225,0.0,0.0,83,0.00,,,0.00,WUHU21623XXSP,2013-03-12 16:12:00,
2013-03-12 12:14:00,35.1,30.3,29.46,SW,225,0.0,0.0,83,0.00,,,0.00,WUHU21623XXSP,2013-03-12 16:14:00,
2013-03-12 12:17:00,35.4,30.7,29.45,SW,225,0.0,0.0,83,0.00,,,0.00,WUHU21623XXSP,2013-03-12 16:17:00,
2013-03-12 12:19:00,35.8,31.1,29.46,SW,225,0.0,0.0,83,0.00,,,0.00,WUHU21623XXSP,2013-03-12 16:19:00,
2013-03-12 12:22:00,36.9,32.1,29.45,SW,225,0.0,0.0,83,0.00,,,0.00,WUHU21623XXSP,2013-03-12 16:22:00,
2013-03-12 12:24:00,36.9,32.1,29.45,SW,225,0.0,0.0,83,0.00,,,0.00,WUHU21623XXSP,2013-03-12 16:24:00,
2013-03-12 12:25:00,37.2,32.5,29.45,SSW,202,0.0,0.0,83,0.00,,,0.00,WUHU21623XXSP,2013-03-12 16:25:00,
2013-03-12 12:27:00,37.8,32.8,29.45,West,270,0.0,0.0,82,0.00,,,0.00,WUHU21623XXSP,2013-03-12 16:27:00,
2013-03-12 12:29:00,37.9,32.8,29.46,West,270,0.0,0.0,82,0.00,,,0.00,WUHU21623XXSP,2013-03-12 16:29:00,
2013-03-12 12:30:00,37.9,32.8,29.46,West,270,0.0,0.0,82,0.00,,,0.00,WUHU21623XXSP,2013-03-12 16:30:00,
2013-03-12 12:33:00,38.3,32.7,29.46,WSW,247,0.0,0.0,80,0.00,,,0.00,WUHU21623XXSP,2013-03-12 16:33:00,
2013-03-12 12:35:00,38.3,32.7,29.46,SSW,202,0.0,0.0,80,0.00,,,0.00,WUHU21623XXSP,2013-03-12 16:35:00,
2013-03-12 12:38:00,38.1,32.2,29.46,SW,225,0.0,0.0,79,0.00,,,0.00,WUHU21623XXSP,2013-03-12 16:38:00,
2013-03-12 12:40:00,37.9,32.0,29.46,SSW,202,0.0,0.0,79,0.00,,,0.00,WUHU21623XXSP,2013-03-12 16:40:00,
2013-03-12 12:43:00,37.9,32.0,29.46,SSW,202,0.0,0.0,79,0.00,,,0.00,WUHU21623XXSP,2013-03-12 16:43:00,
2013-03-12 12:45:00,37.6,31.3,29.46,SSW,202,0.0,0.0,78,0.00,,,0.00,WUHU21623XXSP,2013-03-12 16:45:00,
2013-03-12 12:48:00,37.2,31.0,29.46,SW,225,0.0,0.0,78,0.00,,,0.00,WUHU21623XXSP,2013-03-12 16:48:00,
2013-03-12 12:50:00,37.2,31.0,29.46,SW,225,0.0,0.0,78,0.00,,,0.00,WUHU21623XXSP,2013-03-12 16:50:00,
2013-03-12 12:53:00,36.7,30.5,29.46,WSW,247,0.0,0.0,78,0.00,,,0.00,WUHU21623XXSP,2013-03-12 16:53:00,
2013-03-12 12:55:00,36.3,30.1,29.46,SW,225,0.0,0.0,78,0.00,,,0.00,WUHU21623XXSP,2013-03-12 16:55:00,
2013-03-12 12:56:00,36.3,30.1,29.46,SW,225,0.0,0.0,78,0.00,,,0.00,WUHU21623XXSP,2013-03-12 16:56:00,
2013-03-12 12:57:00,36.1,29.9,29.46,WSW,247,0.0,0.0,78,0.00,,,0.00,WUHU21623XXSP,2013-03-12 16:57:00,
2013-03-12 12:58:00,36.1,29.9,29.46,WSW,247,0.0,0.0,78,0.00,,,0.00,WUHU21623XXSP,2013-03-12 16:58:00,
2013-03-12 13:00:00,36.0,29.7,29.46,SW,225,0.0,0.0,78,0.00,,,0.00,WUHU21623XXSP,2013-03-12 17:00:00,
2013-03-12 13:01:00,35.8,29.6,29.46,WSW,247,0.0,0.0,78,0.00,,,0.00,WUHU21623XXSP,2013-03-12 17:01:00,
2013-03-12 13:02:00,35.8,29.6,29.46,WSW,247,0.0,0.0,78,0.00,,,0.00,WUHU21623XXSP,2013-03-12 17:02:00,
2013-03-12 13:03:00,35.8,29.6,29.46,WSW,247,0.0,0.0,78,0.00,,,0.00,WUHU21623XXSP,2013-03-12 17:03:00,
2013-03-12 13:05:00,35.8,29.6,29.46,SSW,202,0.0,0.0,78,0.00,,,0.00,WUHU21623XXSP,2013-03-12 17:05:00,
2013-03-12 13:06:00,35.8,29.6,29.46,SSW,202,0.0,0.0,78,0.00,,,0.00,WUHU21623XXSP,2013-03-12 17:06:00,
2013-03-12 13:08:00,35.4,29.5,29.46,SW,225,0.0,0.0,79,0.00,,,0.00,WUHU21623XXSP,2013-03-12 17:08:00,
2013-03-12 13:11:00,35.4,29.5,29.47,SW,225,0.0,0.0,79,0.00,,,0.00,WUHU21623XXSP,2013-03-12 17:11:00,
2013-03-12 13:13:00,35.4,29.5,29.47,SW,225,0.0,0.0,79,0.00,,,0.00,WUHU21623XXSP,2013-03-12 17:13:00,
2013-03-12 13:16:00,35.2,29.3,29.47,SSW,202,0.0,0.0,79,0.00,,,0.00,WUHU21623XXSP,2013-03-12 17:16:00,
2013-03-12 13:18:00,35.2,29.3,29.47,WSW,247,0.0,0.0,79,0.00,,,0.00,WUHU21623XXSP,2013-03-12 17:18:00,
2013-03-12 13:21:00,35.2,29.3,29.47,SW,225,0.0,0.0,79,0.00,,,0.00,WUHU21623XXSP,2013-03-12 17:21:00,
2013-03-12 13:23:00,35.2,29.3,29.47,WSW,247,0.0,0.0,79,0.00,,,0.00,WUHU21623XXSP,2013-03-12 17:23:00,
2013-03-12 13:24:00,35.2,29.3,29.47,WSW,247,0.0,0.0,79,0.00,,,0.00,WUHU21623XXSP,2013-03-12 17:24:00,
2013-03-12 13:26:00,35.2,29.3,29.47,SW,225,0.0,0.0,79,0.00,,,0.00,WUHU21623XXSP,2013-03-12 17:26:00,
2013-03-12 13:27:00,35.2,29.3,29.47,SW,225,0.0,0.0,79,0.00,,,0.00,WUHU21623XXSP,2013-03-12 17:27:00,
2013-03-12 13:28:00,35.2,29.3,29.47,SW,225,0.0,0.0,79,0.00,,,0.00,WUHU21623XXSP,2013-03-12 17:28:00,
2013-03-12 13:29:00,35.4,29.5,29.47,WSW,247,0.0,0.0,79,0.00,,,0.00,WUHU21623XXSP,2013-03-12 17:29:00,
2013-03-12 13:31:00,35.4,29.5,29.47,WSW,247,0.0,0.0,79,0.00,,,0.00,WUHU21623XXSP,2013-03-12 17:31:00,
2013-03-12 13:32:00,35.4,29.5,29.47,WSW,247,0.0,0.0,79,0.00,,,0.00,WUHU21623XXSP,2013-03-12 17:32:00,
2013-03-12 13:33:00,35.2,29.3,29.47,SSW,202,0.0,0.0,79,0.00,,,0.00,WUHU21623XXSP,2013-03-12 17:33:00,
2013-03-12 13:34:00,35.2,29.3,29.47,SSW,202,0.0,0.0,79,0.00,,,0.00,WUHU21623XXSP,2013-03-12 17:34:00,
2013-03-12 13:36:00,35.4,29.5,29.47,WSW,247,0.0,0.0,79,0.00,,,0.00,WUHU21623XXSP,2013-03-12 17:36:00,
2013-03-12 13:38:00,35.4,29.5,29.47,SW,225,0.0,0.0,79,0.00,,,0.00,WUHU21623XXSP,2013-03-12 17:38:00,
2013-03-12 13:39:00,35.4,29.5,29.47,SW,225,0.0,0.0,79,0.00,,,0.00,WUHU21623XXSP,2013-03-12 17:39:00,
2013-03-12 13:42:00,35.4,29.2,29.47,WSW,247,0.0,0.0,78,0.00,,,0.00,WUHU21623XXSP,2013-03-12 17:42:00,
2013-03-12 13:44:00,35.4,29.2,29.47,WSW,247,0.0,0.0,78,0.00,,,0.00,WUHU21623XXSP,2013-03-12 17:44:00,
2013-03-12 13:47:00,35.4,29.2,29.47,SW,225,0.0,0.0,78,0.00,,,0.00,WUHU21623XXSP,2013-03-12 17:47:00,
2013-03-12 13:49:00,35.4,29.2,29.47,WSW,247,0.0,0.0,78,0.00,,,0.00,WUHU21623XXSP,2013-03-12 17:49:00,
2013-03-12 13:52:00,35.4,29.2,29.47,WSW,247,0.0,0.0,78,0.00,,,0.00,WUHU21623XXSP,2013-03-12 17:52:00,
2013-03-12 13:54:00,35.4,29.2,29.47,WSW,247,0.0,0.0,78,0.00,,,0.00,WUHU21623XXSP,2013-03-12 17:54:00,
2013-03-12 13:58:00,35.8,29.6,29.47,WSW,247,0.0,0.0,78,0.00,,,0.00,WUHU21623XXSP,2013-03-12 17:58:00,
2013-03-12 13:59:00,35.8,29.6,29.47,West,270,0.0,0.0,78,0.00,,,0.00,WUHU21623XXSP,2013-03-12 17:59:00,
2013-03-12 14:03:00,36.1,29.9,29.47,WSW,247,0.0,0.0,78,0.00,,,0.00,WUHU21623XXSP,2013-03-12 18:03:00,
2013-03-12 14:04:00,36.1,29.9,29.47,WSW,247,0.0,0.0,78,0.00,,,0.00,WUHU21623XXSP,2013-03-12 18:04:00,
2013-03-12 14:08:00,36.3,29.8,29.47,WSW,247,0.0,0.0,77,0.00,,,0.00,WUHU21623XXSP,2013-03-12 18:08:00,
2013-03-12 14:09:00,36.3,29.8,29.47,WSW,247,0.0,0.0,77,0.00,,,0.00,WUHU21623XXSP,2013-03-12 18:09:00,
2013-03-12 14:13:00,36.3,29.4,29.47,SW,225,0.0,0.0,76,0.00,,,0.00,WUHU21623XXSP,2013-03-12 18:13:00,
2013-03-12 14:14:00,36.3,29.4,29.47,SW,225,0.0,0.0,76,0.00,,,0.00,WUHU21623XXSP,2013-03-12 18:14:00,
2013-03-12 14:15:00,36.3,29.4,29.47,SW,225,0.0,0.0,76,0.00,,,0.00,WUHU21623XXSP,2013-03-12 18:15:00,
2013-03-12 14:19:00,36.3,29.4,29.47,SSW,202,0.0,0.0,76,0.00,,,0.00,WUHU21623XXSP,2013-03-12 18:19:00,
2013-03-12 14:20:00,36.3,29.4,29.47,SSW,202,0.0,0.0,76,0.00,,,0.00,WUHU21623XXSP,2013-03-12 18:20:00,
2013-03-12 14:24:00,36.5,29.6,29.47,WSW,247,0.0,0.0,76,0.00,,,0.00,WUHU21623XXSP,2013-03-12 18:24:00,
2013-03-12 14:25:00,36.5,29.3,29.47,SSW,202,0.0,0.0,75,0.00,,,0.00,WUHU21623XXSP,2013-03-12 18:25:00,
2013-03-12 14:29:00,36.3,29.1,29.47,SW,225,0.0,0.0,75,0.00,,,0.00,WUHU21623XXSP,2013-03-12 18:29:00,
2013-03-12 14:30:00,36.3,29.1,29.47,SW,225,0.0,0.0,75,0.00,,,0.00,WUHU21623XXSP,2013-03-12 18:30:00,
2013-03-12 14:34:00,36.1,28.6,29.46,SW,225,0.0,0.0,74,0.00,,,0.00,WUHU21623XXSP,2013-03-12 18:34:00,
2013-03-12 14:35:00,36.1,28.6,29.46,SW,225,0.0,0.0,74,0.00,,,0.00,WUHU21623XXSP,2013-03-12 18:35:00,
2013-03-12 14:39:00,35.8,28.6,29.46,SSW,202,0.0,0.0,75,0.00,,,0.00,WUHU21623XXSP,2013-03-12 18:39:00,
2013-03-12 14:40:00,35.8,28.6,29.46,SSW,202,0.0,0.0,75,0.00,,,0.00,WUHU21623XXSP,2013-03-12 18:40:00,
2013-03-12 14:44:00,35.4,28.2,29.46,SSW,202,0.0,0.0,75,0.00,,,0.00,WUHU21623XXSP,2013-03-12 18:44:00,
2013-03-12 14:45:00,35.4,28.2,29.46,SSW,202,0.0,0.0,75,0.00,,,0.00,WUHU21623XXSP,2013-03-12 18:45:00,
2013-03-12 14:49:00,35.4,28.2,29.46,SSW,202,0.0,0.0,75,0.00,,,0.00,WUHU21623XXSP,2013-03-12 18:49:00,
2013-03-12 14:50:00,35.4,28.5,29.46,SW,225,0.0,0.0,76,0.00,,,0.00,WUHU21623XXSP,2013-03-12 18:50:00,
2013-03-12 14:54:00,35.8,28.9,29.46,SW,225,0.0,0.0,76,0.00,,,0.00,WUHU21623XXSP,2013-03-12 18:54:00,
2013-03-12 14:55:00,35.8,28.9,29.46,SW,225,0.0,0.0,76,0.00,,,0.00,WUHU21623XXSP,2013-03-12 18:55:00,
2013-03-12 15:00:00,35.8,28.6,29.45,SSW,202,0.0,0.0,75,0.00,,,0.00,WUHU21623XXSP,2013-03-12 19:00:00,
2013-03-12 15:02:00,35.8,28.9,29.45,WSW,247,0.0,0.0,76,0.00,,,0.00,WUHU21623XXSP,2013-03-12 19:02:00,
2013-03-12 15:05:00,36.0,29.1,29.45,SW,225,0.0,0.0,76,0.00,,,0.00,WUHU21623XXSP,2013-03-12 19:05:00,
2013-03-12 15:06:00,36.1,28.9,29.45,SW,225,0.0,0.0,75,0.00,,,0.00,WUHU21623XXSP,2013-03-12 19:06:00,
2013-03-12 15:08:00,36.0,28.8,29.45,WSW,247,0.0,0.0,75,0.00,,,0.00,WUHU21623XXSP,2013-03-12 19:08:00,
2013-03-12 15:10:00,36.0,28.8,29.45,SSW,202,0.0,0.0,75,0.00,,,0.00,WUHU21623XXSP,2013-03-12 19:10:00,
2013-03-12 15:11:00,36.0,28.8,29.45,SSW,202,0.0,0.0,75,0.00,,,0.00,WUHU21623XXSP,2013-03-12 19:11:00,
2013-03-12 15:13:00,36.1,28.9,29.45,SSW,202,0.0,0.0,75,0.00,,,0.00,WUHU21623XXSP,2013-03-12 19:13:00,
2013-03-12 15:15:00,36.1,28.9,29.45,SW,225,0.0,0.0,75,0.00,,,0.00,WUHU21623XXSP,2013-03-12 19:15:00,
2013-03-12 15:16:00,36.3,29.1,29.45,WSW,247,0.0,0.0,75,0.00,,,0.00,WUHU21623XXSP,2013-03-12 19:16:00,
2013-03-12 15:18:00,36.3,28.8,29.45,SW,225,0.0,0.0,74,0.00,,,0.00,WUHU21623XXSP,2013-03-12 19:18:00,
2013-03-12 15:20:00,36.3,28.8,29.46,SW,225,0.0,0.0,74,0.00,,,0.00,WUHU21623XXSP,2013-03-12 19:20:00,
2013-03-12 15:21:00,36.3,28.8,29.46,SW,225,0.0,0.0,74,0.00,,,0.00,WUHU21623XXSP,2013-03-12 19:21:00,
2013-03-12 15:22:00,36.3,28.8,29.45,SSW,202,0.0,0.0,74,0.00,,,0.00,WUHU21623XXSP,2013-03-12 19:22:00,
2013-03-12 15:23:00,36.3,28.8,29.45,SSW,202,0.0,0.0,74,0.00,,,0.00,WUHU21623XXSP,2013-03-12 19:23:00,
2013-03-12 15:25:00,36.3,28.8,29.45,South,180,0.0,0.0,74,0.00,,,0.00,WUHU21623XXSP,2013-03-12 19:25:00,
2013-03-12 15:26:00,36.3,28.8,29.45,South,180,0.0,0.0,74,0.00,,,0.00,WUHU21623XXSP,2013-03-12 19:26:00,
2013-03-12 15:27:00,36.3,28.8,29.46,SW,225,0.0,0.0,74,0.00,,,0.00,WUHU21623XXSP,2013-03-12 19:27:00,
2013-03-12 15:28:00,36.3,28.8,29.46,SW,225,0.0,0.0,74,0.00,,,0.00,WUHU21623XXSP,2013-03-12 19:28:00,
2013-03-12 15:31:00,36.0,28.1,29.46,South,180,0.0,0.0,73,0.00,,,0.00,WUHU21623XXSP,2013-03-12 19:31:00,
2013-03-12 15:32:00,36.0,28.1,29.46,South,180,0.0,0.0,73,0.00,,,0.00,WUHU21623XXSP,2013-03-12 19:32:00,
2013-03-12 15:33:00,36.0,28.1,29.46,SW,225,0.0,0.0,73,0.00,,,0.00,WUHU21623XXSP,2013-03-12 19:33:00,
2013-03-12 15:36:00,35.8,27.9,29.46,WSW,247,0.0,0.0,73,0.00,,,0.00,WUHU21623XXSP,2013-03-12 19:36:00,
2013-03-12 15:37:00,35.8,27.9,29.46,WSW,247,0.0,0.0,73,0.00,,,0.00,WUHU21623XXSP,2013-03-12 19:37:00,
2013-03-12 15:39:00,35.8,28.3,29.46,SSW,202,0.0,0.0,74,0.00,,,0.00,WUHU21623XXSP,2013-03-12 19:39:00,
2013-03-12 15:41:00,35.6,27.8,29.46,WSW,247,0.0,0.0,73,0.00,,,0.00,WUHU21623XXSP,2013-03-12 19:41:00,
2013-03-12 15:42:00,35.4,27.6,29.46,SW,225,0.0,0.0,73,0.00,,,0.00,WUHU21623XXSP,2013-03-12 19:42:00,
2013-03-12 15:43:00,35.4,27.6,29.46,SW,225,0.0,0.0,73,0.00,,,0.00,WUHU21623XXSP,2013-03-12 19:43:00,
2013-03-12 15:44:00,35.2,27.4,29.46,SW,225,0.0,0.0,73,0.00,,,0.00,WUHU21623XXSP,2013-03-12 19:44:00,
2013-03-12 15:46:00,35.2,27.4,29.46,SSW,202,0.0,0.0,73,0.00,,,0.00,WUHU21623XXSP,2013-03-12 19:46:00,
2013-03-12 15:48:00,34.9,27.0,29.46,SW,225,0.0,0.0,73,0.00,,,0.00,WUHU21623XXSP,2013-03-12 19:48:00,
2013-03-12 15:49:00,34.9,27.0,29.46,SW,225,0.0,0.0,73,0.00,,,0.00,WUHU21623XXSP,2013-03-12 19:49:00,
2013-03-12 15:52:00,34.9,27.0,29.46,WSW,247,0.0,0.0,73,0.00,,,0.00,WUHU21623XXSP,2013-03-12 19:52:00,
2013-03-12 15:53:00,34.9,27.0,29.46,WSW,247,0.0,0.0,73,0.00,,,0.00,WUHU21623XXSP,2013-03-12 19:53:00,
2013-03-12 15:54:00,34.9,27.0,29.46,WSW,247,0.0,0.0,73,0.00,,,0.00,WUHU21623XXSP,2013-03-12 19:54:00,
2013-03-12 15:55:00,34.9,27.0,29.46,SW,225,0.0,0.0,73,0.00,,,0.00,WUHU21623XXSP,2013-03-12 19:55:00,
2013-03-12 15:57:00,34.9,27.0,29.46,SW,225,0.0,0.0,73,0.00,,,0.00,WUHU21623XXSP,2013-03-12 19:57:00,
2013-03-12 15:58:00,35.2,27.7,29.46,SSW,202,0.0,0.0,74,0.00,,,0.00,WUHU21623XXSP,2013-03-12 19:58:00,
2013-03-12 15:59:00,35.2,27.7,29.46,SSW,202,0.0,0.0,74,0.00,,,0.00,WUHU21623XXSP,2013-03-12 19:59:00,
2013-03-12 16:01:00,35.2,27.4,29.46,SSW,202,0.0,0.0,73,0.00,,,0.00,WUHU21623XXSP,2013-03-12 20:01:00,
2013-03-12 16:02:00,35.2,27.4,29.46,SSW,202,0.0,0.0,73,0.00,,,0.00,WUHU21623XXSP,2013-03-12 20:02:00,
2013-03-12 16:03:00,35.2,27.4,29.46,SW,225,0.0,0.0,73,0.00,,,0.00,WUHU21623XXSP,2013-03-12 20:03:00,
2013-03-12 16:04:00,35.2,27.4,29.46,SW,225,0.0,0.0,73,0.00,,,0.00,WUHU21623XXSP,2013-03-12 20:04:00,
2013-03-12 16:06:00,35.2,27.4,29.46,SSW,202,0.0,0.0,73,0.00,,,0.00,WUHU21623XXSP,2013-03-12 20:06:00,
2013-03-12 16:07:00,35.4,27.6,29.46,SW,225,0.0,0.0,73,0.00,,,0.00,WUHU21623XXSP,2013-03-12 20:07:00,
2013-03-12 16:09:00,35.4,27.6,29.46,SW,225,0.0,0.0,73,0.00,,,0.00,WUHU21623XXSP,2013-03-12 20:09:00,
2013-03-12 16:12:00,36.0,28.4,29.46,SW,225,0.0,0.0,74,0.00,,,0.00,WUHU21623XXSP,2013-03-12 20:12:00,
2013-03-12 16:14:00,36.3,28.8,29.46,SW,225,0.0,0.0,74,0.00,,,0.00,WUHU21623XXSP,2013-03-12 20:14:00,
2013-03-12 16:15:00,36.3,28.8,29.46,SW,225,0.0,0.0,74,0.00,,,0.00,WUHU21623XXSP,2013-03-12 20:15:00,
2013-03-12 16:17:00,36.7,29.2,29.46,WSW,247,0.0,0.0,74,0.00,,,0.00,WUHU21623XXSP,2013-03-12 20:17:00,
2013-03-12 16:19:00,37.2,29.4,29.46,SW,225,0.0,0.0,73,0.00,,,0.00,WUHU21623XXSP,2013-03-12 20:19:00,
2013-03-12 16:20:00,37.0,28.9,29.46,WSW,247,0.0,0.0,72,0.00,,,0.00,WUHU21623XXSP,2013-03-12 20:20:00,
2013-03-12 16:22:00,37.0,28.9,29.46,WSW,247,0.0,0.0,72,0.00,,,0.00,WUHU21623XXSP,2013-03-12 20:22:00,
2013-03-12 16:23:00,37.0,28.9,29.46,WSW,247,0.0,0.0,72,0.00,,,0.00,WUHU21623XXSP,2013-03-12 20:23:00,
2013-03-12 16:24:00,37.0,28.9,29.46,WSW,247,0.0,0.0,72,0.00,,,0.00,WUHU21623XXSP,2013-03-12 20:24:00,
2013-03-12 16:25:00,36.7,28.2,29.46,WSW,247,0.0,0.0,71,0.00,,,0.00,WUHU21623XXSP,2013-03-12 20:25:00,
2013-03-12 16:27:00,36.7,28.2,29.47,SSW,202,0.0,0.0,71,0.00,,,0.00,WUHU21623XXSP,2013-03-12 20:27:00,
2013-03-12 16:28:00,36.7,28.2,29.47,SSW,202,0.0,0.0,71,0.00,,,0.00,WUHU21623XXSP,2013-03-12 20:28:00,
2013-03-12 16:29:00,36.5,28.0,29.46,SSW,202,0.0,0.0,71,0.00,,,0.00,WUHU21623XXSP,2013-03-12 20:29:00,
2013-03-12 16:30:00,36.5,28.0,29.46,SSW,202,0.0,0.0,71,0.00,,,0.00,WUHU21623XXSP,2013-03-12 20:30:00,
2013-03-12 16:32:00,36.5,27.7,29.46,SW,225,0.0,0.0,70,0.00,,,0.00,WUHU21623XXSP,2013-03-12 20:32:00,
2013-03-12 16:33:00,36.5,28.0,29.47,SW,225,0.0,0.0,71,0.00,,,0.00,WUHU21623XXSP,2013-03-12 20:33:00,
2013-03-12 16:34:00,36.5,28.0,29.47,SW,225,0.0,0.0,71,0.00,,,0.00,WUHU21623XXSP,2013-03-12 20:34:00,
2013-03-12 16:35:00,36.5,28.0,29.47,SW,225,0.0,0.0,71,0.00,,,0.00,WUHU21623XXSP,2013-03-12 20:35:00,
2013-03-12 16:38:00,36.3,27.8,29.46,WSW,247,0.0,0.0,71,0.00,,,0.00,WUHU21623XXSP,2013-03-12 20:38:00,
2013-03-12 16:39:00,36.3,27.8,29.46,WSW,247,0.0,0.0,71,0.00,,,0.00,WUHU21623XXSP,2013-03-12 20:39:00,
2013-03-12 16:40:00,36.3,27.5,29.47,SW,225,0.0,0.0,70,0.00,,,0.00,WUHU21623XXSP,2013-03-12 20:40:00,
2013-03-12 16:44:00,36.1,27.3,29.46,SW,225,0.0,0.0,70,0.00,,,0.00,WUHU21623XXSP,2013-03-12 20:44:00,
2013-03-12 16:45:00,36.1,27.3,29.47,WSW,247,0.0,0.0,70,0.00,,,0.00,WUHU21623XXSP,2013-03-12 20:45:00,
2013-03-12 16:49:00,35.8,27.0,29.47,SW,225,0.0,0.0,70,0.00,,,0.00,WUHU21623XXSP,2013-03-12 20:49:00,
2013-03-12 16:50:00,35.8,27.0,29.47,SW,225,0.0,0.0,70,0.00,,,0.00,WUHU21623XXSP,2013-03-12 20:50:00,
2013-03-12 16:51:00,35.8,27.0,29.47,SW,225,0.0,0.0,70,0.00,,,0.00,WUHU21623XXSP,2013-03-12 20:51:00,
2013-03-12 16:54:00,35.6,27.1,29.47,WSW,247,0.0,0.0,71,0.00,,,0.00,WUHU21623XXSP,2013-03-12 20:54:00,
2013-03-12 16:55:00,35.4,26.9,29.47,SW,225,0.0,0.0,71,0.00,,,0.00,WUHU21623XXSP,2013-03-12 20:55:00,
2013-03-12 16:56:00,35.4,26.9,29.47,SW,225,0.0,0.0,71,0.00,,,0.00,WUHU21623XXSP,2013-03-12 20:56:00,
2013-03-12 16:59:00,35.4,26.9,29.47,WSW,247,0.0,0.0,71,0.00,,,0.00,WUHU21623XXSP,2013-03-12 20:59:00,
2013-03-12 17:00:00,35.4,26.9,29.47,WSW,247,0.0,0.0,71,0.00,,,0.00,WUHU21623XXSP,2013-03-12 21:00:00,
2013-03-12 17:01:00,35.4,26.9,29.47,West,270,0.0,0.0,71,0.00,,,0.00,WUHU21623XXSP,2013-03-12 21:01:00,
2013-03-12 17:04:00,35.4,26.9,29.47,WSW,247,0.0,0.0,71,0.00,,,0.00,WUHU21623XXSP,2013-03-12 21:04:00,
2013-03-12 17:05:00,35.2,27.1,29.47,WSW,247,0.0,0.0,72,0.00,,,0.00,WUHU21623XXSP,2013-03-12 21:05:00,
2013-03-12 17:06:00,35.2,27.1,29.47,WSW,247,0.0,0.0,72,0.00,,,0.00,WUHU21623XXSP,2013-03-12 21:06:00,
2013-03-12 17:09:00,35.2,27.1,29.48,SW,225,0.0,0.0,72,0.00,,,0.00,WUHU21623XXSP,2013-03-12 21:09:00,
2013-03-12 17:11:00,35.2,27.1,29.48,SW,225,0.0,0.0,72,0.00,,,0.00,WUHU21623XXSP,2013-03-12 21:11:00,
2013-03-12 17:14:00,34.9,26.7,29.48,SW,225,0.0,0.0,71,0.00,,,0.00,WUHU21623XXSP,2013-03-12 21:14:00,
2013-03-12 17:16:00,34.9,26.4,29.47,WSW,247,0.0,0.0,71,0.00,,,0.00,WUHU21623XXSP,2013-03-12 21:16:00,
2013-03-12 17:17:00,34.9,26.4,29.47,WSW,247,0.0,0.0,71,0.00,,,0.00,WUHU21623XXSP,2013-03-12 21:17:00,
2013-03-12 17:19:00,34.9,26.4,29.47,WSW,247,0.0,0.0,71,0.00,,,0.00,WUHU21623XXSP,2013-03-12 21:19:00,
2013-03-12 17:21:00,34.7,26.2,29.47,SW,225,0.0,0.0,71,0.00,,,0.00,WUHU21623XXSP,2013-03-12 21:21:00,
2013-03-12 17:22:00,34.7,26.2,29.47,SW,225,0.0,0.0,71,0.00,,,0.00,WUHU21623XXSP,2013-03-12 21:22:00,
2013-03-12 17:25:00,34.3,25.8,29.48,SW,225,0.0,0.0,71,0.00,,,0.00,WUHU21623XXSP,2013-03-12 21:25:00,
2013-03-12 17:26:00,34.3,25.8,29.48,SW,225,0.0,0.0,71,0.00,,,0.00,WUHU21623XXSP,2013-03-12 21:26:00,
2013-03-12 17:27:00,34.3,25.8,29.47,WSW,247,0.0,0.0,71,0.00,,,0.00,WUHU21623XXSP,2013-03-12 21:27:00,
2013-03-12 17:28:00,34.3,25.8,29.47,WSW,247,0.0,0.0,71,0.00,,,0.00,WUHU21623XXSP,2013-03-12 21:28:00,
2013-03-12 17:30:00,34.3,26.2,29.48,SW,225,0.0,0.0,72,0.00,,,0.00,WUHU21623XXSP,2013-03-12 21:30:00,
2013-03-12 17:31:00,34.3,26.2,29.47,SW,225,0.0,0.0,72,0.00,,,0.00,WUHU21623XXSP,2013-03-12 21:31:00,
2013-03-12 17:33:00,34.3,26.2,29.48,SW,225,0.0,0.0,72,0.00,,,0.00,WUHU21623XXSP,2013-03-12 21:33:00,
2013-03-12 17:35:00,34.3,26.5,29.48,WSW,247,0.0,0.0,73,0.00,,,0.00,WUHU21623XXSP,2013-03-12 21:35:00,
2013-03-12 17:37:00,34.3,26.5,29.48,WSW,247,0.0,0.0,73,0.00,,,0.00,WUHU21623XXSP,2013-03-12 21:37:00,
2013-03-12 17:38:00,34.3,26.5,29.48,WSW,247,0.0,0.0,73,0.00,,,0.00,WUHU21623XXSP,2013-03-12 21:38:00,
2013-03-12 17:40:00,34.2,26.3,29.48,SW,225,0.0,0.0,73,0.00,,,0.00,WUHU21623XXSP,2013-03-12 21:40:00,
2013-03-12 17:42:00,34.2,26.3,29.48,WSW,247,0.0,0.0,73,0.00,,,0.00,WUHU21623XXSP,2013-03-12 21:42:00,
2013-03-12 17:43:00,34.2,26.3,29.48,SW,225,0.0,0.0,73,0.00,,,0.00,WUHU21623XXSP,2013-03-12 21:43:00,
2013-03-12 17:45:00,34.2,26.3,29.48,SW,225,0.0,0.0,73,0.00,,,0.00,WUHU21623XXSP,2013-03-12 21:45:00,
2013-03-12 17:47:00,34.0,26.1,29.49,WSW,247,0.0,0.0,73,0.00,,,0.00,WUHU21623XXSP,2013-03-12 21:47:00,
2013-03-12 17:48:00,34.0,26.1,29.49,WSW,247,0.0,0.0,73,0.00,,,0.00,WUHU21623XXSP,2013-03-12 21:48:00,
2013-03-12 17:50:00,34.0,26.1,29.48,WSW,247,0.0,0.0,73,0.00,,,0.00,WUHU21623XXSP,2013-03-12 21:50:00,
2013-03-12 17:53:00,34.0,26.1,29.49,WSW,247,0.0,0.0,73,0.00,,,0.00,WUHU21623XXSP,2013-03-12 21:53:00,
2013-03-12 17:55:00,34.0,26.1,29.49,WSW,247,0.0,0.0,73,0.00,,,0.00,WUHU21623XXSP,2013-03-12 21:55:00,
2013-03-12 17:58:00,33.8,26.0,29.48,WSW,247,0.0,0.0,73,0.00,,,0.00,WUHU21623XXSP,2013-03-12 21:58:00,
2013-03-12 18:00:00,33.8,26.0,29.48,WSW,247,0.0,0.0,73,0.00,,,0.00,WUHU21623XXSP,2013-03-12 22:00:00,
2013-03-12 18:03:00,33.8,26.0,29.49,WSW,247,0.0,0.0,73,0.00,,,0.00,WUHU21623XXSP,2013-03-12 22:03:00,
2013-03-12 18:04:00,33.8,26.0,29.49,WSW,247,0.0,0.0,73,0.00,,,0.00,WUHU21623XXSP,2013-03-12 22:04:00,
2013-03-12 18:05:00,33.6,25.8,29.49,WSW,247,0.0,0.0,73,0.00,,,0.00,WUHU21623XXSP,2013-03-12 22:05:00,
2013-03-12 18:08:00,33.6,25.8,29.49,WSW,247,0.0,0.0,73,0.00,,,0.00,WUHU21623XXSP,2013-03-12 22:08:00,
2013-03-12 18:09:00,33.6,25.8,29.49,WSW,247,0.0,0.0,73,0.00,,,0.00,WUHU21623XXSP,2013-03-12 22:09:00,
2013-03-12 18:11:00,33.6,25.8,29.49,WSW,247,0.0,0.0,73,0.00,,,0.00,WUHU21623XXSP,2013-03-12 22:11:00,
2013-03-12 18:13:00,33.6,25.8,29.48,WSW,247,0.0,0.0,73,0.00,,,0.00,WUHU21623XXSP,2013-03-12 22:13:00,
2013-03-12 18:14:00,33.6,25.8,29.49,WSW,247,0.0,0.0,73,0.00,,,0.00,WUHU21623XXSP,2013-03-12 22:14:00,
2013-03-12 18:16:00,33.6,25.8,29.48,WSW,247,0.0,0.0,73,0.00,,,0.00,WUHU21623XXSP,2013-03-12 22:16:00,
2013-03-12 18:18:00,33.6,25.8,29.48,WSW,247,0.0,0.0,73,0.00,,,0.00,WUHU21623XXSP,2013-03-12 22:18:00,
2013-03-12 18:19:00,33.6,25.8,29.48,WSW,247,0.0,0.0,73,0.00,,,0.00,WUHU21623XXSP,2013-03-12 22:19:00,
2013-03-12 18:22:00,33.6,25.8,29.49,WSW,247,0.0,0.0,74,0.00,,,0.00,WUHU21623XXSP,2013-03-12 22:22:00,
2013-03-12 18:23:00,33.6,25.8,29.49,SSW,202,0.0,0.0,73,0.00,,,0.00,WUHU21623XXSP,2013-03-12 22:23:00,
2013-03-12 18:24:00,33.6,25.8,29.49,WSW,247,0.0,0.0,73,0.00,,,0.00,WUHU21623XXSP,2013-03-12 22:24:00,
2013-03-12 18:27:00,33.6,26.1,29.49,SW,225,0.0,0.0,74,0.00,,,0.00,WUHU21623XXSP,2013-03-12 22:27:00,
2013-03-12 18:28:00,33.6,26.1,29.49,SW,225,0.0,0.0,74,0.00,,,0.00,WUHU21623XXSP,2013-03-12 22:28:00,
2013-03-12 18:29:00,33.6,26.1,29.49,SSW,202,0.0,0.0,74,0.00,,,0.00,WUHU21623XXSP,2013-03-12 22:29:00,
2013-03-12 18:32:00,33.4,26.0,29.49,SW,225,0.0,0.0,74,0.00,,,0.00,WUHU21623XXSP,2013-03-12 22:32:00,
2013-03-12 18:33:00,33.4,26.0,29.49,SW,225,0.0,0.0,74,0.00,,,0.00,WUHU21623XXSP,2013-03-12 22:33:00,
2013-03-12 18:34:00,33.4,26.0,29.49,SW,225,0.0,0.0,74,0.00,,,0.00,WUHU21623XXSP,2013-03-12 22:34:00,
2013-03-12 18:37:00,33.4,26.0,29.49,SW,225,0.0,0.0,74,0.00,,,0.00,WUHU21623XXSP,2013-03-12 22:37:00,
2013-03-12 18:39:00,33.4,26.0,29.49,SW,225,0.0,0.0,74,0.00,,,0.00,WUHU21623XXSP,2013-03-12 22:39:00,
2013-03-12 18:40:00,33.4,26.0,29.49,SW,225,0.0,0.0,74,0.00,,,0.00,WUHU21623XXSP,2013-03-12 22:40:00,
2013-03-12 18:42:00,33.4,26.0,29.48,South,180,0.0,0.0,74,0.00,,,0.00,WUHU21623XXSP,2013-03-12 22:42:00,
2013-03-12 18:44:00,33.4,26.0,29.49,SSW,202,0.0,0.0,74,0.00,,,0.00,WUHU21623XXSP,2013-03-12 22:44:00,
2013-03-12 18:45:00,33.4,26.0,29.49,SSW,202,0.0,0.0,74,0.00,,,0.00,WUHU21623XXSP,2013-03-12 22:45:00,
2013-03-12 18:47:00,33.6,26.0,29.49,SSW,202,0.0,0.0,75,0.00,,,0.00,WUHU21623XXSP,2013-03-12 22:47:00,
2013-03-12 18:49:00,33.6,26.4,29.49,SSW,202,0.0,0.0,75,0.00,,,0.00,WUHU21623XXSP,2013-03-12 22:49:00,
2013-03-12 18:50:00,33.6,26.4,29.49,WSW,247,0.0,0.0,75,0.00,,,0.00,WUHU21623XXSP,2013-03-12 22:50:00,
2013-03-12 18:51:00,33.6,26.4,29.49,WSW,247,0.0,0.0,75,0.00,,,0.00,WUHU21623XXSP,2013-03-12 22:51:00,
2013-03-12 18:53:00,33.6,26.4,29.49,SW,225,0.0,0.0,75,0.00,,,0.00,WUHU21623XXSP,2013-03-12 22:53:00,
2013-03-12 18:54:00,33.6,26.4,29.49,SW,225,0.0,0.0,75,0.00,,,0.00,WUHU21623XXSP,2013-03-12 22:54:00,
2013-03-12 18:55:00,33.6,26.4,29.49,SW,225,0.0,0.0,75,0.00,,,0.00,WUHU21623XXSP,2013-03-12 22:55:00,
2013-03-12 18:57:00,33.6,26.4,29.49,SW,225,0.0,0.0,75,0.00,,,0.00,WUHU21623XXSP,2013-03-12 22:57:00,
2013-03-12 18:58:00,33.6,26.4,29.49,SW,225,0.0,0.0,75,0.00,,,0.00,WUHU21623XXSP,2013-03-12 22:58:00,
2013-03-12 18:59:00,33.4,26.3,29.49,SW,225,0.0,0.0,75,0.00,,,0.00,WUHU21623XXSP,2013-03-12 22:59:00,
2013-03-12 19:00:00,33.4,26.3,29.49,SSW,202,0.0,0.0,75,0.00,,,0.00,WUHU21623XXSP,2013-03-12 23:00:00,
2013-03-12 19:02:00,33.4,26.3,29.49,SSW,202,0.0,0.0,75,0.00,,,0.00,WUHU21623XXSP,2013-03-12 23:02:00,
2013-03-12 19:03:00,33.4,26.3,29.49,WSW,247,0.0,0.0,75,0.00,,,0.00,WUHU21623XXSP,2013-03-12 23:03:00,
2013-03-12 19:04:00,33.4,26.3,29.49,WSW,247,0.0,0.0,75,0.00,,,0.00,WUHU21623XXSP,2013-03-12 23:04:00,
2013-03-12 19:06:00,33.4,26.3,29.49,SW,225,0.0,0.0,75,0.00,,,0.00,WUHU21623XXSP,2013-03-12 23:06:00,
2013-03-12 19:07:00,33.4,26.3,29.49,WSW,247,0.0,0.0,75,0.00,,,0.00,WUHU21623XXSP,2013-03-12 23:07:00,
2013-03-12 19:08:00,33.4,26.3,29.49,WSW,247,0.0,0.0,75,0.00,,,0.00,WUHU21623XXSP,2013-03-12 23:08:00,
2013-03-12 19:10:00,33.4,26.3,29.49,WSW,247,0.0,0.0,75,0.00,,,0.00,WUHU21623XXSP,2013-03-12 23:10:00,
2013-03-12 19:11:00,33.4,26.3,29.49,WSW,247,0.0,0.0,75,0.00,,,0.00,WUHU21623XXSP,2013-03-12 23:11:00,
2013-03-12 19:12:00,33.3,26.4,29.49,SW,225,0.0,0.0,76,0.00,,,0.00,WUHU21623XXSP,2013-03-12 23:12:00,
2013-03-12 19:14:00,33.3,26.4,29.49,SW,225,0.0,0.0,76,0.00,,,0.00,WUHU21623XXSP,2013-03-12 23:14:00,
2013-03-12 19:15:00,33.3,26.4,29.49,SW,225,0.0,0.0,76,0.00,,,0.00,WUHU21623XXSP,2013-03-12 23:15:00,
2013-03-12 19:16:00,33.3,26.4,29.49,SW,225,0.0,0.0,76,0.00,,,0.00,WUHU21623XXSP,2013-03-12 23:16:00,
2013-03-12 19:18:00,33.3,26.4,29.49,SW,225,0.0,0.0,76,0.00,,,0.00,WUHU21623XXSP,2013-03-12 23:18:00,
2013-03-12 19:19:00,33.3,26.4,29.49,SW,225,0.0,0.0,76,0.00,,,0.00,WUHU21623XXSP,2013-03-12 23:19:00,
2013-03-12 19:20:00,33.1,26.4,29.49,SW,225,0.0,0.0,76,0.00,,,0.00,WUHU21623XXSP,2013-03-12 23:20:00,
2013-03-12 19:22:00,33.1,26.4,29.49,SW,225,0.0,0.0,76,0.00,,,0.00,WUHU21623XXSP,2013-03-12 23:22:00,
2013-03-12 19:24:00,33.1,26.3,29.49,SW,225,0.0,0.0,76,0.00,,,0.00,WUHU21623XXSP,2013-03-12 23:24:00,
2013-03-12 19:25:00,33.1,26.3,29.49,SW,225,0.0,0.0,76,0.00,,,0.00,WUHU21623XXSP,2013-03-12 23:25:00,
2013-03-12 19:27:00,33.1,26.3,29.49,SW,225,0.0,0.0,76,0.00,,,0.00,WUHU21623XXSP,2013-03-12 23:27:00,
2013-03-12 19:29:00,33.1,26.3,29.49,SW,225,0.0,0.0,76,0.00,,,0.00,WUHU21623XXSP,2013-03-12 23:29:00,
2013-03-12 19:32:00,32.9,26.1,29.49,SW,225,0.0,0.0,76,0.00,,,0.00,WUHU21623XXSP,2013-03-12 23:32:00,
2013-03-12 19:34:00,32.9,26.1,29.49,SSW,202,0.0,0.0,76,0.00,,,0.00,WUHU21623XXSP,2013-03-12 23:34:00,
2013-03-12 19:35:00,32.9,26.1,29.49,SW,225,0.0,0.0,76,0.00,,,0.00,WUHU21623XXSP,2013-03-12 23:35:00,
2013-03-12 19:37:00,32.9,26.1,29.49,SW,225,0.0,0.0,76,0.00,,,0.00,WUHU21623XXSP,2013-03-12 23:37:00,
2013-03-12 19:39:00,32.9,26.1,29.49,SW,225,0.0,0.0,76,0.00,,,0.00,WUHU21623XXSP,2013-03-12 23:39:00,
2013-03-12 19:40:00,32.9,26.1,29.49,SSW,202,0.0,0.0,76,0.00,,,0.00,WUHU21623XXSP,2013-03-12 23:40:00,
2013-03-12 19:43:00,32.7,26.0,29.49,WSW,247,0.0,0.0,76,0.00,,,0.00,WUHU21623XXSP,2013-03-12 23:43:00,
2013-03-12 19:44:00,32.7,26.0,29.49,SW,225,0.0,0.0,76,0.00,,,0.00,WUHU21623XXSP,2013-03-12 23:44:00,
2013-03-12 19:45:00,32.7,26.0,29.49,SW,225,0.0,0.0,76,0.00,,,0.00,WUHU21623XXSP,2013-03-12 23:45:00,
2013-03-12 19:48:00,32.5,25.8,29.49,SW,225,0.0,0.0,76,0.00,,,0.00,WUHU21623XXSP,2013-03-12 23:48:00,
2013-03-12 19:50:00,32.4,26.0,29.50,SW,225,0.0,0.0,77,0.00,,,0.00,WUHU21623XXSP,2013-03-12 23:50:00,
2013-03-12 19:53:00,32.4,26.0,29.50,SW,225,0.0,0.0,77,0.00,,,0.00,WUHU21623XXSP,2013-03-12 23:53:00,
2013-03-12 19:54:00,32.4,26.0,29.50,SW,225,0.0,0.0,77,0.00,,,0.00,WUHU21623XXSP,2013-03-12 23:54:00,
2013-03-12 19:55:00,32.4,26.0,29.50,SW,225,0.0,0.0,77,0.00,,,0.00,WUHU21623XXSP,2013-03-12 23:55:00,
2013-03-12 19:58:00,32.4,26.0,29.50,SW,225,0.0,0.0,77,0.00,,,0.00,WUHU21623XXSP,2013-03-12 23:58:00,
2013-03-12 19:59:00,32.5,26.1,29.50,SW,225,0.0,0.0,77,0.00,,,0.00,WUHU21623XXSP,2013-03-12 23:59:00,
2013-03-12 20:00:00,32.5,26.1,29.50,WSW,247,0.0,0.0,77,0.00,,,0.00,WUHU21623XXSP,2013-03-13 00:00:00,
2013-03-12 20:03:00,32.5,26.4,29.50,SW,225,0.0,0.0,78,0.00,,,0.00,WUHU21623XXSP,2013-03-13 00:03:00,
2013-03-12 20:04:00,32.5,26.4,29.50,SW,225,0.0,0.0,78,0.00,,,0.00,WUHU21623XXSP,2013-03-13 00:04:00,
2013-03-12 20:05:00,32.5,26.4,29.50,WSW,247,0.0,0.0,78,0.00,,,0.00,WUHU21623XXSP,2013-03-13 00:05:00,
2013-03-12 20:06:00,32.5,26.4,29.50,WSW,247,0.0,0.0,78,0.00,,,0.00,WUHU21623XXSP,2013-03-13 00:06:00,
2013-03-12 20:08:00,32.5,26.4,29.50,SW,225,0.0,0.0,78,0.00,,,0.00,WUHU21623XXSP,2013-03-13 00:08:00,
2013-03-12 20:09:00,32.5,26.4,29.50,SW,225,0.0,0.0,78,0.00,,,0.00,WUHU21623XXSP,2013-03-13 00:09:00,
2013-03-12 20:10:00,32.5,26.4,29.50,SW,225,0.0,0.0,78,0.00,,,0.00,WUHU21623XXSP,2013-03-13 00:10:00,
2013-03-12 20:11:00,32.5,26.4,29.50,SW,225,0.0,0.0,78,0.00,,,0.00,WUHU21623XXSP,2013-03-13 00:11:00,
2013-03-12 20:13:00,32.7,26.6,29.50,SW,225,0.0,0.0,78,0.00,,,0.00,WUHU21623XXSP,2013-03-13 00:13:00,
2013-03-12 20:14:00,32.7,26.6,29.50,SW,225,0.0,0.0,78,0.00,,,0.00,WUHU21623XXSP,2013-03-13 00:14:00,
2013-03-12 20:16:00,32.7,26.6,29.50,WSW,247,0.0,0.0,78,0.00,,,0.00,WUHU21623XXSP,2013-03-13 00:16:00,
2013-03-12 20:18:00,32.7,26.6,29.50,SW,225,0.0,0.0,78,0.00,,,0.00,WUHU21623XXSP,2013-03-13 00:18:00,
2013-03-12 20:20:00,32.7,26.6,29.50,SW,225,0.0,0.0,78,0.00,,,0.00,WUHU21623XXSP,2013-03-13 00:20:00,
2013-03-12 20:21:00,32.7,26.6,29.50,WSW,247,0.0,0.0,78,0.00,,,0.00,WUHU21623XXSP,2013-03-13 00:21:00,
2013-03-12 20:23:00,32.5,26.4,29.50,SW,225,0.0,0.0,78,0.00,,,0.00,WUHU21623XXSP,2013-03-13 00:23:00,
2013-03-12 20:25:00,32.7,26.6,29.50,WSW,247,0.0,0.0,78,0.00,,,0.00,WUHU21623XXSP,2013-03-13 00:25:00,
2013-03-12 20:26:00,32.5,26.4,29.50,WSW,247,0.0,0.0,78,0.00,,,0.00,WUHU21623XXSP,2013-03-13 00:26:00,
2013-03-12 20:27:00,32.5,26.4,29.50,WSW,247,0.0,0.0,78,0.00,,,0.00,WUHU21623XXSP,2013-03-13 00:27:00,
2013-03-12 20:28:00,32.5,26.4,29.50,WSW,247,0.0,0.0,78,0.00,,,0.00,WUHU21623XXSP,2013-03-13 00:28:00,
2013-03-12 20:30:00,32.5,26.4,29.50,WSW,247,0.0,0.0,78,0.00,,,0.00,WUHU21623XXSP,2013-03-13 00:30:00,
2013-03-12 20:31:00,32.4,26.3,29.50,SW,225,0.0,0.0,78,0.00,,,0.00,WUHU21623XXSP,2013-03-13 00:31:00,
2013-03-12 20:32:00,32.4,26.3,29.50,SW,225,0.0,0.0,78,0.00,,,0.00,WUHU21623XXSP,2013-03-13 00:32:00,
2013-03-12 20:34:00,32.2,26.4,29.50,WSW,247,0.0,0.0,79,0.00,,,0.00,WUHU21623XXSP,2013-03-13 00:34:00,
2013-03-12 20:35:00,32.2,26.4,29.50,WSW,247,0.0,0.0,79,0.00,,,0.00,WUHU21623XXSP,2013-03-13 00:35:00,
2013-03-12 20:36:00,32.2,26.4,29.50,WSW,247,0.0,0.0,79,0.00,,,0.00,WUHU21623XXSP,2013-03-13 00:36:00,
2013-03-12 20:37:00,31.8,26.1,29.50,WSW,247,0.0,0.0,79,0.00,,,0.00,WUHU21623XXSP,2013-03-13 00:37:00,
2013-03-12 20:39:00,31.6,25.9,29.50,SW,225,0.0,0.0,79,0.00,,,0.00,WUHU21623XXSP,2013-03-13 00:39:00,
2013-03-12 20:40:00,31.6,25.9,29.50,SW,225,0.0,0.0,79,0.00,,,0.00,WUHU21623XXSP,2013-03-13 00:40:00,
2013-03-12 20:41:00,31.6,25.6,29.50,WSW,247,0.0,0.0,78,0.00,,,0.00,WUHU21623XXSP,2013-03-13 00:41:00,
2013-03-12 20:42:00,31.6,25.6,29.50,WSW,247,0.0,0.0,78,0.00,,,0.00,WUHU21623XXSP,2013-03-13 00:42:00,
2013-03-12 20:44:00,31.3,25.6,29.50,SW,225,0.0,0.0,79,0.00,,,0.00,WUHU21623XXSP,2013-03-13 00:44:00,
2013-03-12 20:45:00,31.3,25.6,29.50,SW,225,0.0,0.0,79,0.00,,,0.00,WUHU21623XXSP,2013-03-13 00:45:00,
2013-03-12 20:47:00,31.3,25.6,29.50,SW,225,0.0,0.0,79,0.00,,,0.00,WUHU21623XXSP,2013-03-13 00:47:00,
2013-03-12 20:48:00,31.1,25.4,29.50,SW,225,0.0,0.0,79,0.00,,,0.00,WUHU21623XXSP,2013-03-13 00:48:00,
2013-03-12 20:49:00,31.1,25.4,29.50,SW,225,0.0,0.0,79,0.00,,,0.00,WUHU21623XXSP,2013-03-13 00:49:00,
2013-03-12 20:50:00,30.9,25.5,29.50,SW,225,0.0,0.0,80,0.00,,,0.00,WUHU21623XXSP,2013-03-13 00:50:00,
2013-03-12 20:52:00,30.9,25.5,29.51,WSW,247,0.0,0.0,80,0.00,,,0.00,WUHU21623XXSP,2013-03-13 00:52:00,
2013-03-12 20:53:00,30.9,25.5,29.51,WSW,247,0.0,0.0,80,0.00,,,0.00,WUHU21623XXSP,2013-03-13 00:53:00,
2013-03-12 20:54:00,30.9,25.5,29.51,WSW,247,0.0,0.0,80,0.00,,,0.00,WUHU21623XXSP,2013-03-13 00:54:00,
2013-03-12 20:56:00,30.9,25.5,29.51,WSW,247,0.0,0.0,80,0.00,,,0.00,WUHU21623XXSP,2013-03-13 00:56:00,
2013-03-12 20:57:00,30.7,25.3,29.51,WSW,247,0.0,0.0,80,0.00,,,0.00,WUHU21623XXSP,2013-03-13 00:57:00,
2013-03-12 20:58:00,30.7,25.3,29.51,WSW,247,0.0,0.0,80,0.00,,,0.00,WUHU21623XXSP,2013-03-13 00:58:00,
2013-03-12 20:59:00,30.7,25.3,29.51,WSW,247,0.0,0.0,80,0.00,,,0.00,WUHU21623XXSP,2013-03-13 00:59:00,
2013-03-12 21:01:00,30.7,25.3,29.51,WSW,247,0.0,0.0,80,0.00,,,0.00,WUHU21623XXSP,2013-03-13 01:01:00,
2013-03-12 21:02:00,30.7,25.3,29.51,WSW,247,0.0,0.0,80,0.00,,,0.00,WUHU21623XXSP,2013-03-13 01:02:00,
2013-03-12 21:03:00,30.7,25.3,29.51,WSW,247,0.0,0.0,81,0.00,,,0.00,WUHU21623XXSP,2013-03-13 01:03:00,
2013-03-12 21:05:00,30.6,25.4,29.51,WSW,247,0.0,0.0,81,0.00,,,0.00,WUHU21623XXSP,2013-03-13 01:05:00,
2013-03-12 21:06:00,30.6,25.4,29.51,WSW,247,0.0,0.0,81,0.00,,,0.00,WUHU21623XXSP,2013-03-13 01:06:00,
2013-03-12 21:07:00,30.6,25.4,29.51,WSW,247,0.0,0.0,81,0.00,,,0.00,WUHU21623XXSP,2013-03-13 01:07:00,
2013-03-12 21:09:00,30.6,25.4,29.52,WSW,247,0.0,0.0,81,0.00,,,0.00,WUHU21623XXSP,2013-03-13 01:09:00,
2013-03-12 21:10:00,30.6,25.4,29.52,WSW,247,0.0,0.0,81,0.00,,,0.00,WUHU21623XXSP,2013-03-13 01:10:00,
2013-03-12 21:11:00,30.6,25.4,29.52,WSW,247,0.0,0.0,81,0.00,,,0.00,WUHU21623XXSP,2013-03-13 01:11:00,
2013-03-12 21:13:00,30.4,25.4,29.51,WSW,247,0.0,0.0,81,0.00,,,0.00,WUHU21623XXSP,2013-03-13 01:13:00,
2013-03-12 21:14:00,30.4,25.3,29.52,WSW,247,0.0,0.0,81,0.00,,,0.00,WUHU21623XXSP,2013-03-13 01:14:00,
2013-03-12 21:15:00,30.4,25.3,29.52,WSW,247,0.0,0.0,81,0.00,,,0.00,WUHU21623XXSP,2013-03-13 01:15:00,
2013-03-12 21:16:00,30.4,25.3,29.52,WSW,247,0.0,0.0,81,0.00,,,0.00,WUHU21623XXSP,2013-03-13 01:16:00,
2013-03-12 21:18:00,30.2,25.3,29.52,WSW,247,0.0,0.0,81,0.00,,,0.00,WUHU21623XXSP,2013-03-13 01:18:00,
2013-03-12 21:19:00,30.2,25.3,29.52,WSW,247,0.0,0.0,81,0.00,,,0.00,WUHU21623XXSP,2013-03-13 01:19:00,
2013-03-12 21:21:00,30.2,25.4,29.52,WSW,247,0.0,0.0,82,0.00,,,0.00,WUHU21623XXSP,2013-03-13 01:21:00,
2013-03-12 21:23:00,30.2,25.4,29.52,WSW,247,0.0,0.0,82,0.00,,,0.00,WUHU21623XXSP,2013-03-13 01:23:00,
2013-03-12 21:24:00,30.2,25.4,29.52,WSW,247,0.0,0.0,82,0.00,,,0.00,WUHU21623XXSP,2013-03-13 01:24:00,
2013-03-12 21:26:00,30.2,25.4,29.51,WSW,247,0.0,0.0,82,0.00,,,0.00,WUHU21623XXSP,2013-03-13 01:26:00,
2013-03-12 21:27:00,30.2,25.4,29.51,WSW,247,0.0,0.0,82,0.00,,,0.00,WUHU21623XXSP,2013-03-13 01:27:00,
2013-03-12 21:29:00,30.2,25.4,29.52,WSW,247,0.0,0.0,82,0.00,,,0.00,WUHU21623XXSP,2013-03-13 01:29:00,
2013-03-12 21:31:00,30.2,25.4,29.51,SW,225,0.0,0.0,82,0.00,,,0.00,WUHU21623XXSP,2013-03-13 01:31:00,
2013-03-12 21:32:00,30.2,25.4,29.51,SW,225,0.0,0.0,82,0.00,,,0.00,WUHU21623XXSP,2013-03-13 01:32:00,
2013-03-12 21:34:00,30.0,25.2,29.51,SW,225,0.0,0.0,82,0.00,,,0.00,WUHU21623XXSP,2013-03-13 01:34:00,
2013-03-12 21:37:00,30.0,25.2,29.51,SW,225,0.0,0.0,82,0.00,,,0.00,WUHU21623XXSP,2013-03-13 01:37:00,
2013-03-12 21:39:00,30.0,25.2,29.52,SW,225,0.0,0.0,82,0.00,,,0.00,WUHU21623XXSP,2013-03-13 01:39:00,
2013-03-12 21:42:00,29.8,25.0,29.51,SW,225,0.0,0.0,82,0.00,,,0.00,WUHU21623XXSP,2013-03-13 01:42:00,
2013-03-12 21:43:00,29.8,25.0,29.51,SW,225,0.0,0.0,82,0.00,,,0.00,WUHU21623XXSP,2013-03-13 01:43:00,
2013-03-12 21:44:00,29.8,25.0,29.51,SW,225,0.0,0.0,82,0.00,,,0.00,WUHU21623XXSP,2013-03-13 01:44:00,
2013-03-12 21:45:00,29.8,25.0,29.51,SW,225,0.0,0.0,82,0.00,,,0.00,WUHU21623XXSP,2013-03-13 01:45:00,
2013-03-12 21:48:00,29.7,24.8,29.51,SW,225,0.0,0.0,82,0.00,,,0.00,WUHU21623XXSP,2013-03-13 01:48:00,
2013-03-12 21:49:00,29.7,24.8,29.51,SW,225,0.0,0.0,82,0.00,,,0.00,WUHU21623XXSP,2013-03-13 01:49:00,
2013-03-12 21:50:00,29.5,24.7,29.52,SW,225,0.0,0.0,82,0.00,,,0.00,WUHU21623XXSP,2013-03-13 01:50:00,
2013-03-12 21:53:00,29.5,24.7,29.51,SW,225,0.0,0.0,82,0.00,,,0.00,WUHU21623XXSP,2013-03-13 01:53:00,
2013-03-12 21:54:00,29.3,24.5,29.51,SSW,202,0.0,0.0,82,0.00,,,0.00,WUHU21623XXSP,2013-03-13 01:54:00,
2013-03-12 21:55:00,29.3,24.5,29.51,SSW,202,0.0,0.0,82,0.00,,,0.00,WUHU21623XXSP,2013-03-13 01:55:00,
2013-03-12 21:58:00,29.1,24.3,29.51,SW,225,0.0,0.0,82,0.00,,,0.00,WUHU21623XXSP,2013-03-13 01:58:00,
2013-03-12 21:59:00,29.1,24.3,29.51,SW,225,0.0,0.0,82,0.00,,,0.00,WUHU21623XXSP,2013-03-13 01:59:00,
2013-03-12 22:00:00,29.1,24.3,29.51,SW,225,0.0,0.0,82,0.00,,,0.00,WUHU21623XXSP,2013-03-13 02:00:00,
2013-03-12 22:01:00,29.1,24.3,29.51,SW,225,0.0,0.0,82,0.00,,,0.00,WUHU21623XXSP,2013-03-13 02:01:00,
2013-03-12 22:04:00,29.1,24.3,29.51,SW,225,0.0,0.0,82,0.00,,,0.00,WUHU21623XXSP,2013-03-13 02:04:00,
2013-03-12 22:05:00,29.1,24.3,29.51,SW,225,0.0,0.0,82,0.00,,,0.00,WUHU21623XXSP,2013-03-13 02:05:00,
2013-03-12 22:06:00,29.1,24.3,29.51,SSW,202,0.0,0.0,82,0.00,,,0.00,WUHU21623XXSP,2013-03-13 02:06:00,
2013-03-12 22:09:00,29.1,24.3,29.51,SSW,202,0.0,0.0,82,0.00,,,0.00,WUHU21623XXSP,2013-03-13 02:09:00,
2013-03-12 22:10:00,29.1,24.3,29.51,SSW,202,0.0,0.0,82,0.00,,,0.00,WUHU21623XXSP,2013-03-13 02:10:00,
2013-03-12 22:12:00,29.1,24.3,29.51,SW,225,0.0,0.0,82,0.00,,,0.00,WUHU21623XXSP,2013-03-13 02:12:00,
2013-03-12 22:14:00,29.1,24.3,29.51,SW,225,0.0,0.0,82,0.00,,,0.00,WUHU21623XXSP,2013-03-13 02:14:00,
2013-03-12 22:15:00,29.1,24.3,29.51,SSW,202,0.0,0.0,82,0.00,,,0.00,WUHU21623XXSP,2013-03-13 02:15:00,
2013-03-12 22:17:00,29.1,24.3,29.51,SSW,202,0.0,0.0,82,0.00,,,0.00,WUHU21623XXSP,2013-03-13 02:17:00,
2013-03-12 22:19:00,29.1,24.3,29.51,SW,225,0.0,0.0,82,0.00,,,0.00,WUHU21623XXSP,2013-03-13 02:19:00,
2013-03-12 22:20:00,29.1,24.3,29.51,SW,225,0.0,0.0,82,0.00,,,0.00,WUHU21623XXSP,2013-03-13 02:20:00,
2013-03-12 22:22:00,29.1,24.3,29.51,SW,225,0.0,0.0,82,0.00,,,0.00,WUHU21623XXSP,2013-03-13 02:22:00,
2013-03-12 22:24:00,29.3,24.5,29.51,SSW,202,0.0,0.0,82,0.00,,,0.00,WUHU21623XXSP,2013-03-13 02:24:00,
2013-03-12 22:26:00,29.3,24.5,29.51,SSW,202,0.0,0.0,82,0.00,,,0.00,WUHU21623XXSP,2013-03-13 02:26:00,
2013-03-12 22:27:00,29.3,24.5,29.51,SSW,202,0.0,0.0,82,0.00,,,0.00,WUHU21623XXSP,2013-03-13 02:27:00,
2013-03-12 22:30:00,29.3,24.5,29.51,SSW,202,0.0,0.0,82,0.00,,,0.00,WUHU21623XXSP,2013-03-13 02:30:00,
2013-03-12 22:31:00,29.3,24.5,29.51,SSW,202,0.0,0.0,82,0.00,,,0.00,WUHU21623XXSP,2013-03-13 02:31:00,
2013-03-12 22:32:00,29.3,24.5,29.51,SSW,202,0.0,0.0,82,0.00,,,0.00,WUHU21623XXSP,2013-03-13 02:32:00,
2013-03-12 22:35:00,29.3,24.5,29.51,SSW,202,0.0,0.0,82,0.00,,,0.00,WUHU21623XXSP,2013-03-13 02:35:00,
2013-03-12 22:36:00,29.3,24.5,29.51,SW,225,0.0,0.0,82,0.00,,,0.00,WUHU21623XXSP,2013-03-13 02:36:00,
2013-03-12 22:37:00,29.3,24.5,29.51,SSW,202,0.0,0.0,82,0.00,,,0.00,WUHU21623XXSP,2013-03-13 02:37:00,
2013-03-12 22:38:00,29.3,24.5,29.51,SSW,202,0.0,0.0,82,0.00,,,0.00,WUHU21623XXSP,2013-03-13 02:38:00,
2013-03-12 22:40:00,29.3,24.5,29.51,SSW,202,0.0,0.0,82,0.00,,,0.00,WUHU21623XXSP,2013-03-13 02:40:00,
2013-03-12 22:42:00,29.3,24.5,29.51,SSW,202,0.0,0.0,82,0.00,,,0.00,WUHU21623XXSP,2013-03-13 02:42:00,
2013-03-12 22:43:00,29.3,24.5,29.51,SSW,202,0.0,0.0,82,0.00,,,0.00,WUHU21623XXSP,2013-03-13 02:43:00,
2013-03-12 22:45:00,29.3,24.5,29.51,SSW,202,0.0,0.0,82,0.00,,,0.00,WUHU21623XXSP,2013-03-13 02:45:00,
2013-03-12 22:47:00,29.5,24.5,29.51,SSW,202,0.0,0.0,82,0.00,,,0.00,WUHU21623XXSP,2013-03-13 02:47:00,
2013-03-12 22:48:00,29.5,24.7,29.51,SSW,202,0.0,0.0,82,0.00,,,0.00,WUHU21623XXSP,2013-03-13 02:48:00,
2013-03-12 22:50:00,29.5,24.7,29.51,SSW,202,0.0,0.0,82,0.00,,,0.00,WUHU21623XXSP,2013-03-13 02:50:00,
2013-03-12 22:52:00,29.5,24.7,29.51,SSW,202,0.0,0.0,82,0.00,,,0.00,WUHU21623XXSP,2013-03-13 02:52:00,
2013-03-12 22:53:00,29.5,24.7,29.51,SSW,202,0.0,0.0,82,0.00,,,0.00,WUHU21623XXSP,2013-03-13 02:53:00,
2013-03-12 22:57:00,29.3,24.5,29.51,South,180,0.0,0.0,82,0.00,,,0.00,WUHU21623XXSP,2013-03-13 02:57:00,
2013-03-12 22:58:00,29.3,24.5,29.51,South,180,0.0,0.0,82,0.00,,,0.00,WUHU21623XXSP,2013-03-13 02:58:00,
2013-03-12 22:59:00,29.3,24.5,29.51,South,180,0.0,0.0,82,0.00,,,0.00,WUHU21623XXSP,2013-03-13 02:59:00,
2013-03-12 23:02:00,29.3,24.5,29.51,SSW,202,0.0,0.0,82,0.00,,,0.00,WUHU21623XXSP,2013-03-13 03:02:00,
2013-03-12 23:03:00,29.3,24.5,29.51,SSW,202,0.0,0.0,82,0.00,,,0.00,WUHU21623XXSP,2013-03-13 03:03:00,
2013-03-12 23:05:00,29.3,24.5,29.51,SSW,202,0.0,0.0,82,0.00,,,0.00,WUHU21623XXSP,2013-03-13 03:05:00,
2013-03-12 23:07:00,29.3,24.5,29.51,SSW,202,0.0,0.0,82,0.00,,,0.00,WUHU21623XXSP,2013-03-13 03:07:00,
2013-03-12 23:08:00,29.3,24.5,29.51,SSW,202,0.0,0.0,82,0.00,,,0.00,WUHU21623XXSP,2013-03-13 03:08:00,
2013-03-12 23:10:00,29.3,24.8,29.51,South,180,0.0,0.0,83,0.00,,,0.00,WUHU21623XXSP,2013-03-13 03:10:00,
2013-03-12 23:13:00,29.3,24.8,29.51,South,180,0.0,0.0,83,0.00,,,0.00,WUHU21623XXSP,2013-03-13 03:13:00,
2013-03-12 23:15:00,29.5,24.9,29.51,South,180,0.0,0.0,83,0.00,,,0.00,WUHU21623XXSP,2013-03-13 03:15:00,
2013-03-12 23:18:00,29.7,25.1,29.51,SSW,202,0.0,0.0,83,0.00,,,0.00,WUHU21623XXSP,2013-03-13 03:18:00,
2013-03-12 23:19:00,29.7,25.1,29.51,SSW,202,0.0,0.0,83,0.00,,,0.00,WUHU21623XXSP,2013-03-13 03:19:00,
2013-03-12 23:20:00,29.8,25.3,29.51,South,180,0.0,0.0,83,0.00,,,0.00,WUHU21623XXSP,2013-03-13 03:20:00,
2013-03-12 23:23:00,29.8,25.3,29.51,SW,225,0.0,0.0,83,0.00,,,0.00,WUHU21623XXSP,2013-03-13 03:23:00,
2013-03-12 23:24:00,29.8,25.3,29.51,SW,225,0.0,0.0,83,0.00,,,0.00,WUHU21623XXSP,2013-03-13 03:24:00,
2013-03-12 23:25:00,30.0,25.5,29.51,South,180,0.0,0.0,83,0.00,,,0.00,WUHU21623XXSP,2013-03-13 03:25:00,
2013-03-12 23:28:00,30.0,25.5,29.50,SSW,202,0.0,0.0,83,0.00,,,0.00,WUHU21623XXSP,2013-03-13 03:28:00,
2013-03-12 23:29:00,30.0,25.5,29.50,SSW,202,0.0,0.0,83,0.00,,,0.00,WUHU21623XXSP,2013-03-13 03:29:00,
2013-03-12 23:30:00,30.0,25.5,29.50,SSW,202,0.0,0.0,83,0.00,,,0.00,WUHU21623XXSP,2013-03-13 03:30:00,
2013-03-12 23:34:00,30.2,25.7,29.50,South,180,0.0,0.0,83,0.00,,,0.00,WUHU21623XXSP,2013-03-13 03:34:00,
2013-03-12 23:35:00,30.4,25.8,29.51,SSW,202,0.0,0.0,83,0.00,,,0.00,WUHU21623XXSP,2013-03-13 03:35:00,
2013-03-12 23:39:00,30.4,25.8,29.51,South,180,0.0,0.0,83,0.00,,,0.00,WUHU21623XXSP,2013-03-13 03:39:00,
2013-03-12 23:41:00,30.4,25.8,29.51,South,180,0.0,0.0,83,0.00,,,0.00,WUHU21623XXSP,2013-03-13 03:41:00,
2013-03-12 23:44:00,30.2,25.7,29.50,SSW,202,0.0,0.0,83,0.00,,,0.00,WUHU21623XXSP,2013-03-13 03:44:00,
2013-03-12 23:46:00,30.2,25.7,29.50,SSW,202,0.0,0.0,83,0.00,,,0.00,WUHU21623XXSP,2013-03-13 03:46:00,
2013-03-12 23:49:00,30.0,25.5,29.50,South,180,0.0,0.0,83,0.00,,,0.00,WUHU21623XXSP,2013-03-13 03:49:00,
2013-03-12 23:51:00,30.0,25.5,29.51,South,180,0.0,0.0,83,0.00,,,0.00,WUHU21623XXSP,2013-03-13 03:51:00,
2013-03-12 23:54:00,30.0,25.5,29.51,South,180,0.0,0.0,83,0.00,,,0.00,WUHU21623XXSP,2013-03-13 03:54:00,
2013-03-12 23:55:00,30.0,25.5,29.51,South,180,0.0,0.0,83,0.00,,,0.00,WUHU21623XXSP,2013-03-13 03:55:00,
2013-03-12 23:56:00,30.0,25.5,29.51,South,180,0.0,0.0,83,0.00,,,0.00,WUHU21623XXSP,2013-03-13 03:56:00,
2013-03-12 23:59:00,30.0,25.5,29.51,SSW,202,0.0,0.0,83,0.00,,,0.00,WUHU21623XXSP,2013-03-13 03:59:00,